FW6030 Weather Reports


time (UTC)temp
C
wind
direction
speed
KPH
gust
KPH
rain 1hr
cm
rain 24hr
cm
rain mn
cm
humidity
%
barometer
mb
20260831034126 30 360 14.5 37.0 0.00 0.00 0.00 65 1016.2
20260831034047 30 360 12.9 37.0 0.00 0.00 0.00 65 1016.1
20260831033926 30 360 14.5 37.0 0.00 0.00 0.00 65 1016.1
20260831033831 30 360 14.5 37.0 0.00 0.00 0.00 65 1016.1
20260831033732 30 360 14.5 37.0 0.00 0.00 0.00 64 1016.1
20260831033631 30 360 17.7 37.0 0.00 0.00 0.00 64 1016.1
20260831033552 30 360 22.5 37.0 0.00 0.00 0.00 64 1016.1
20260831033452 30 360 22.5 37.0 0.00 0.00 0.00 64 1016.1
20260831033331 30 360 22.5 37.0 0.00 0.00 0.00 64 1016.0
20260831033232 30 360 20.9 37.0 0.00 0.00 0.00 64 1016.0
20260831033116 30 360 17.7 32.2 0.00 0.00 0.00 64 1016.0
20260831033016 30 360 19.3 32.2 0.00 0.00 0.00 64 1016.0
20260831032916 30 360 16.1 32.2 0.00 0.00 0.00 63 1016.0
20260831032818 30 360 16.1 32.2 0.00 0.00 0.00 63 1015.9
20260831032717 30 360 16.1 35.4 0.00 0.00 0.00 63 1016.0
20260831032617 30 360 17.7 35.4 0.00 0.00 0.00 63 1015.9
20260831032517 30 360 20.9 35.4 0.00 0.00 0.00 63 1016.0
20260831032422 30 360 22.5 35.4 0.00 0.00 0.00 63 1015.9
20260831032343 30 360 24.1 35.4 0.00 0.00 0.00 63 1016.0
20260831032223 30 360 24.1 35.4 0.00 0.00 0.00 62 1015.9
20260831032123 30 360 22.5 35.4 0.00 0.00 0.00 62 1015.9
20260831032024 30 360 20.9 35.4 0.00 0.00 0.00 62 1015.9
20260831031925 30 360 19.3 35.4 0.00 0.00 0.00 62 1015.9
20260831031825 30 360 19.3 35.4 0.00 0.00 0.00 62 1015.9
20260831031730 30 360 22.5 35.4 0.00 0.00 0.00 62 1015.9
20260831031630 30 360 20.9 35.4 0.00 0.00 0.00 62 1015.9
20260831031530 30 360 20.9 35.4 0.00 0.00 0.00 62 1015.9
20260831031432 31 360 20.9 35.4 0.00 0.00 0.00 62 1015.9
20260831031330 31 360 22.5 35.4 0.00 0.00 0.00 61 1015.9
20260831031251 31 360 22.5 35.4 0.00 0.00 0.00 61 1015.8
20260831031151 31 360 22.5 35.4 0.00 0.00 0.00 61 1015.8
20260831031031 31 360 19.3 35.4 0.00 0.00 0.00 61 1015.8
20260831030916 31 360 12.9 32.2 0.00 0.00 0.00 61 1015.7
20260831030817 31 360 11.3 32.2 0.00 0.00 0.00 61 1015.7
20260831030737 31 360 12.9 32.2 0.00 0.00 0.00 61 1015.7
20260831030617 31 360 14.5 32.2 0.00 0.00 0.00 61 1015.7
20260831030538 31 360 19.3 32.2 0.00 0.00 0.00 61 1015.6
20260831030417 31 360 20.9 32.2 0.00 0.00 0.00 61 1015.6
20260831030317 31 360 20.9 32.2 0.00 0.00 0.00 61 1015.6
20260831030221 31 360 19.3 33.8 0.00 0.00 0.00 61 1015.6
20260831030122 31 360 17.7 33.8 0.00 0.00 0.00 61 1015.6
20260831030023 31 360 14.5 33.8 0.00 0.00 0.00 61 1015.6
20260831025923 31 360 14.5 33.8 0.00 0.00 0.00 61 1015.6
20260831025825 31 360 16.1 33.8 0.00 0.00 0.00 61 1015.6
20260831025725 31 360 17.7 33.8 0.00 0.00 0.00 61 1015.5
20260831025646 31 360 22.5 33.8 0.00 0.00 0.00 60 1015.6
20260831025529 31 360 20.9 33.8 0.00 0.00 0.00 60 1015.5
20260831025429 31 360 19.3 33.8 0.00 0.00 0.00 61 1015.5
20260831025330 31 360 17.7 29.0 0.00 0.00 0.00 61 1015.5
20260831025231 31 360 16.1 24.1 0.00 0.00 0.00 61 1015.4
20260831025130 31 360 16.1 24.1 0.00 0.00 0.00 61 1015.4
20260831025051 31 360 16.1 24.1 0.00 0.00 0.00 61 1015.5
20260831024931 31 360 16.1 22.5 0.00 0.00 0.00 61 1015.4
20260831024816 31 360 14.5 22.5 0.00 0.00 0.00 61 1015.4
20260831024716 31 360 12.9 22.5 0.00 0.00 0.00 61 1015.4
20260831024617 31 360 14.5 22.5 0.00 0.00 0.00 61 1015.4
20260831024518 31 360 14.5 22.5 0.00 0.00 0.00 61 1015.4
20260831024437 31 360 14.5 22.5 0.00 0.00 0.00 61 1015.4
20260831024316 31 360 12.9 20.9 0.00 0.00 0.00 61 1015.3
20260831024237 31 360 11.3 22.5 0.00 0.00 0.00 61 1015.3
20260831024157 31 360 11.3 22.5 0.00 0.00 0.00 61 1015.3
20260831024036 31 360 11.3 22.5 0.00 0.00 0.00 61 1015.3
20260831023919 31 360 12.9 32.2 0.00 0.00 0.00 61 1015.3
20260831023820 31 360 14.5 32.2 0.00 0.00 0.00 60 1015.2
20260831023720 31 360 14.5 32.2 0.00 0.00 0.00 60 1015.2
20260831023621 31 360 14.5 32.2 0.00 0.00 0.00 60 1015.2
20260831023522 31 360 12.9 32.2 0.00 0.00 0.00 60 1015.2
20260831023421 31 360 14.5 32.2 0.00 0.00 0.00 60 1015.1
20260831023342 31 360 16.1 32.2 0.00 0.00 0.00 60 1015.2
20260831023227 31 360 19.3 32.2 0.00 0.00 0.00 60 1015.1
20260831023129 31 165 20.9 32.2 0.00 0.00 0.00 60 1015.2
20260831023030 31 360 19.3 30.6 0.00 0.00 0.00 59 1015.1
20260831022931 31 360 19.3 30.6 0.00 0.00 0.00 59 1015.1
20260831022853 31 360 20.9 30.6 0.00 0.00 0.00 59 1015.1
20260831022732 31 360 20.9 30.6 0.00 0.00 0.00 59 1015.0
20260831022617 31 360 19.3 30.6 0.00 0.00 0.00 59 1015.0
20260831022517 31 360 17.7 30.6 0.00 0.00 0.00 59 1015.0
20260831022419 31 360 14.5 25.7 0.00 0.00 0.00 58 1015.0
20260831022318 31 360 16.1 25.7 0.00 0.00 0.00 58 1015.0
20260831022240 31 360 14.5 24.1 0.00 0.00 0.00 57 1015.0
20260831022120 31 158 16.1 24.1 0.00 0.00 0.00 57 1014.9
20260831022020 31 360 16.1 24.1 0.00 0.00 0.00 57 1014.9
20260831021941 31 360 16.1 24.1 0.00 0.00 0.00 57 1014.9
20260831021825 31 360 16.1 24.1 0.00 0.00 0.00 57 1014.9
20260831021724 31 360 16.1 24.1 0.00 0.00 0.00 57 1014.9
20260831021626 31 360 16.1 24.1 0.00 0.00 0.00 56 1014.9
20260831021526 31 360 12.9 24.1 0.00 0.00 0.00 56 1015.0
20260831021427 32 360 12.9 27.4 0.00 0.00 0.00 56 1014.8
20260831021327 32 360 12.9 27.4 0.00 0.00 0.00 56 1014.9
20260831021233 32 360 12.9 27.4 0.00 0.00 0.00 56 1014.8
20260831021153 32 360 14.5 27.4 0.00 0.00 0.00 56 1014.8
20260831021032 32 360 12.9 29.0 0.00 0.00 0.00 56 1014.8
20260831020933 32 360 14.5 29.0 0.00 0.00 0.00 56 1014.8
20260831020833 32 360 17.7 29.0 0.00 0.00 0.00 56 1014.8
20260831020733 32 360 17.7 29.0 0.00 0.00 0.00 56 1014.8
20260831020654 32 360 17.7 29.0 0.00 0.00 0.00 56 1014.8
20260831020517 32 360 16.1 33.8 0.00 0.00 0.00 55 1014.7
20260831020417 32 360 19.3 33.8 0.00 0.00 0.00 55 1014.8
20260831020320 32 360 19.3 33.8 0.00 0.00 0.00 55 1014.7
20260831020220 32 360 17.7 33.8 0.00 0.00 0.00 55 1014.7
20260831020122 32 360 16.1 33.8 0.00 0.00 0.00 54 1014.7
20260831020042 32 360 17.7 33.8 0.00 0.00 0.00 54 1014.6
20260831015923 32 360 17.7 33.8 0.00 0.00 0.00 54 1014.6
20260831015828 32 360 19.3 30.6 0.00 0.00 0.00 54 1014.5
20260831015749 32 360 20.9 30.6 0.00 0.00 0.00 54 1014.6
20260831015628 32 360 20.9 30.6 0.00 0.00 0.00 53 1014.6
20260831015528 32 360 20.9 30.6 0.00 0.00 0.00 53 1014.6
20260831015429 32 360 19.3 27.4 0.00 0.00 0.00 53 1014.5
20260831015349 32 360 14.5 24.1 0.00 0.00 0.00 53 1014.5
20260831015228 32 360 12.9 24.1 0.00 0.00 0.00 52 1014.5
20260831015148 32 360 11.3 24.1 0.00 0.00 0.00 52 1014.4
20260831015033 32 360 11.3 24.1 0.00 0.00 0.00 52 1014.5
20260831014932 32 360 11.3 24.1 0.00 0.00 0.00 52 1014.5
20260831014833 32 360 11.3 22.5 0.00 0.00 0.00 52 1014.4
20260831014753 32 360 11.3 22.5 0.00 0.00 0.00 52 1014.4
20260831014632 32 360 14.5 22.5 0.00 0.00 0.00 52 1014.4
20260831014551 32 360 14.5 22.5 0.00 0.00 0.00 52 1014.4
20260831014431 32 360 16.1 22.5 0.00 0.00 0.00 52 1014.4
20260831014351 32 360 16.1 22.5 0.00 0.00 0.00 52 1014.4
20260831014231 32 360 16.1 22.5 0.00 0.00 0.00 51 1014.4
20260831014151 32 360 14.5 22.5 0.00 0.00 0.00 51 1014.4
20260831014034 32 360 12.9 19.3 0.00 0.00 0.00 50 1014.3
20260831013935 32 360 11.3 14.5 0.00 0.00 0.00 50 1014.3
20260831013853 32 360 9.7 14.5 0.00 0.00 0.00 50 1014.3
20260831013733 32 360 8.0 14.5 0.00 0.00 0.00 50 1014.3
20260831013632 32 360 8.0 9.7 0.00 0.00 0.00 50 1014.2
20260831013554 32 360 6.4 8.0 0.00 0.00 0.00 50 1014.1
20260831013432 32 360 6.4 8.0 0.00 0.00 0.00 50 1014.1
20260831013317 32 360 6.4 8.0 0.00 0.00 0.00 49 1014.1
20260831013217 32 360 6.4 8.0 0.00 0.00 0.00 49 1014.1
20260831013118 32 167 6.4 8.0 0.00 0.00 0.00 49 1014.1
20260831013038 32 360 6.4 8.0 0.00 0.00 0.00 49 1014.1
20260831012917 32 360 4.8 8.0 0.00 0.00 0.00 49 1014.0
20260831012820 32 360 4.8 8.0 0.00 0.00 0.00 49 1014.0
20260831012740 32 360 4.8 8.0 0.00 0.00 0.00 49 1014.0
20260831012623 32 360 4.8 8.0 0.00 0.00 0.00 49 1014.0
20260831012544 32 360 4.8 9.7 0.00 0.00 0.00 49 1014.0
20260831012443 32 360 4.8 9.7 0.00 0.00 0.00 49 1014.0
20260831012343 32 360 4.8 9.7 0.00 0.00 0.00 49 1014.0
20260831012222 32 360 4.8 9.7 0.00 0.00 0.00 49 1014.0
20260831012123 32 360 4.8 9.7 0.00 0.00 0.00 49 1014.0
20260831012023 32 360 6.4 9.7 0.00 0.00 0.00 49 1013.9
20260831011925 32 360 6.4 9.7 0.00 0.00 0.00 49 1013.9
20260831011824 32 360 6.4 9.7 0.00 0.00 0.00 49 1014.0
20260831011728 32 360 6.4 9.7 0.00 0.00 0.00 49 1013.9
20260831011629 32 360 6.4 12.9 0.00 0.00 0.00 49 1013.9
20260831011529 32 360 6.4 16.1 0.00 0.00 0.00 49 1013.9
20260831011429 32 360 6.4 16.1 0.00 0.00 0.00 49 1013.9
20260831011329 32 360 6.4 16.1 0.00 0.00 0.00 49 1014.0
20260831011231 32 360 6.4 16.1 0.00 0.00 0.00 49 1014.0
20260831011116 32 360 6.4 16.1 0.00 0.00 0.00 49 1014.0
20260831011016 32 360 8.0 16.1 0.00 0.00 0.00 49 1014.0
20260831010916 32 360 8.0 16.1 0.00 0.00 0.00 48 1014.0
20260831010818 33 360 8.0 16.1 0.00 0.00 0.00 48 1014.0
20260831010738 33 360 8.0 16.1 0.00 0.00 0.00 48 1014.1
20260831010638 33 360 8.0 16.1 0.00 0.00 0.00 48 1014.1
20260831010518 33 360 8.0 16.1 0.00 0.00 0.00 48 1014.0
20260831010422 33 360 8.0 16.1 0.00 0.00 0.00 48 1014.0
20260831010323 33 360 6.4 9.7 0.00 0.00 0.00 48 1014.0
20260831010224 33 360 6.4 9.7 0.00 0.00 0.00 48 1014.0
20260831010125 33 360 6.4 9.7 0.00 0.00 0.00 48 1013.9
20260831010046 33 360 6.4 8.0 0.00 0.00 0.00 48 1013.9
20260831005925 33 360 6.4 8.0 0.00 0.00 0.00 48 1014.0
20260831005827 33 360 4.8 8.0 0.00 0.00 0.00 48 1013.9
20260831005730 33 165 4.8 9.7 0.00 0.00 0.00 48 1014.0
20260831005631 33 360 4.8 9.7 0.00 0.00 0.00 48 1013.9
20260831005532 33 360 4.8 9.7 0.00 0.00 0.00 48 1014.0
20260831005433 33 165 4.8 9.7 0.00 0.00 0.00 48 1013.9
20260831005332 33 165 4.8 9.7 0.00 0.00 0.00 47 1013.9
20260831005233 33 360 4.8 9.7 0.00 0.00 0.00 47 1013.9
20260831005118 33 360 6.4 9.7 0.00 0.00 0.00 47 1013.9
20260831005019 33 360 6.4 9.7 0.00 0.00 0.00 47 1013.8
20260831004919 33 360 6.4 9.7 0.00 0.00 0.00 47 1013.9
20260831004841 33 360 6.4 9.7 0.00 0.00 0.00 47 1013.8
20260831004721 33 360 4.8 9.7 0.00 0.00 0.00 47 1013.9
20260831004622 33 360 6.4 9.7 0.00 0.00 0.00 47 1014.0
20260831004522 33 360 4.8 9.7 0.00 0.00 0.00 47 1013.9
20260831004442 33 360 4.8 9.7 0.00 0.00 0.00 46 1013.9
20260831004325 33 360 6.4 9.7 0.00 0.00 0.00 46 1014.0
20260831004226 33 360 6.4 9.7 0.00 0.00 0.00 46 1013.9
20260831004128 33 360 6.4 14.5 0.00 0.00 0.00 46 1013.9
20260831004029 33 360 6.4 14.5 0.00 0.00 0.00 46 1013.8
20260831003929 33 360 6.4 14.5 0.00 0.00 0.00 46 1013.8
20260831003831 33 360 6.4 14.5 0.00 0.00 0.00 45 1013.8
20260831003734 33 360 6.4 14.5 0.00 0.00 0.00 45 1013.9
20260831003616 34 360 6.4 14.5 0.00 0.00 0.00 45 1013.8
20260831003517 34 360 6.4 16.1 0.00 0.00 0.00 45 1013.8
20260831003416 34 360 6.4 16.1 0.00 0.00 0.00 45 1013.8
20260831003338 34 360 6.4 16.1 0.00 0.00 0.00 45 1013.8
20260831003216 34 360 6.4 16.1 0.00 0.00 0.00 45 1013.7
20260831003117 34 360 8.0 20.9 0.00 0.00 0.00 45 1013.8
20260831003021 34 360 9.7 20.9 0.00 0.00 0.00 44 1013.9
20260831002922 34 360 9.7 20.9 0.00 0.00 0.00 44 1013.8
20260831002843 34 360 9.7 24.1 0.00 0.00 0.00 44 1013.8
20260831002722 34 360 8.0 24.1 0.00 0.00 0.00 45 1013.8
20260831002642 34 360 9.7 24.1 0.00 0.00 0.00 44 1013.9
20260831002522 34 360 11.3 24.1 0.00 0.00 0.00 44 1013.8
20260831002422 34 360 12.9 24.1 0.00 0.00 0.00 44 1013.8
20260831002323 34 360 14.5 24.1 0.00 0.00 0.00 43 1013.8
20260831002228 35 360 16.1 24.1 0.00 0.00 0.00 43 1013.7
20260831002127 35 360 16.1 24.1 0.00 0.00 0.00 43 1013.8
20260831002028 35 360 14.5 24.1 0.00 0.00 0.00 43 1013.7
20260831001930 35 360 11.3 22.5 0.00 0.00 0.00 44 1013.7
20260831001831 35 360 11.3 22.5 0.00 0.00 0.00 44 1013.8
20260831001731 35 360 11.3 22.5 0.00 0.00 0.00 45 1013.7
20260831001617 35 360 9.7 22.5 0.00 0.00 0.00 45 1013.8
20260831001516 35 360 12.9 22.5 0.00 0.00 0.00 45 1013.7
20260831001437 35 360 14.5 22.5 0.00 0.00 0.00 45 1013.7
20260831001336 35 360 14.5 22.5 0.00 0.00 0.00 45 1013.6
20260831001257 35 360 16.1 22.5 0.00 0.00 0.00 45 1013.7
20260831001116 35 360 12.9 19.3 0.00 0.00 0.00 45 1013.6
20260831001017 35 360 11.3 19.3 0.00 0.00 0.00 45 1013.7
20260831000917 35 360 9.7 17.7 0.00 0.00 0.00 46 1013.7
20260831000823 35 360 8.0 17.7 0.00 0.00 0.00 46 1013.7
20260831000722 35 360 8.0 17.7 0.00 0.00 0.00 45 1013.7
20260831000643 35 360 6.4 17.7 0.00 0.00 0.00 45 1013.7
20260831000541 35 360 6.4 17.7 0.00 0.00 0.00 45 1013.7
20260831000420 35 360 6.4 17.7 0.00 0.00 0.00 45 1013.7
20260831000320 35 360 6.4 14.5 0.00 0.00 0.00 46 1013.7
20260831000220 35 360 4.8 14.5 0.00 0.00 0.00 45 1013.7
20260831000121 35 360 4.8 14.5 0.00 0.00 0.00 44 1013.7
20260831000025 35 360 6.4 14.5 0.00 0.00 0.00 45 1013.7
20260830235925 35 360 6.4 14.5 0.00 0.00 0.00 45 1013.7
20260830235846 35 360 6.4 17.7 0.00 0.00 0.00 45 1013.7
20260830235725 35 360 6.4 17.7 0.00 0.00 0.00 45 1013.7
20260830235626 35 360 6.4 17.7 0.00 0.00 0.00 45 1013.7
20260830235528 35 360 6.4 17.7 0.00 0.00 0.00 45 1013.7
20260830235428 35 360 4.8 17.7 0.00 0.00 0.00 45 1013.6
20260830235333 35 184 6.4 17.7 0.00 0.00 0.00 45 1013.7
20260830235254 35 360 8.0 17.7 0.00 0.00 0.00 45 1013.5
20260830235154 35 360 9.7 17.7 0.00 0.00 0.00 45 1013.6
20260830235035 35 360 11.3 17.7 0.00 0.00 0.00 44 1013.7
20260830234916 35 360 9.7 17.7 0.00 0.00 0.00 44 1013.7
20260830234815 35 360 9.7 17.7 0.00 0.00 0.00 44 1013.7
20260830234716 35 360 9.7 17.7 0.00 0.00 0.00 45 1013.8
20260830234620 35 360 11.3 17.7 0.00 0.00 0.00 45 1013.7
20260830234541 35 360 11.3 17.7 0.00 0.00 0.00 45 1013.7
20260830234422 35 165 9.7 17.7 0.00 0.00 0.00 45 1013.8
20260830234321 35 360 6.4 16.1 0.00 0.00 0.00 44 1013.8
20260830234242 35 360 6.4 17.7 0.00 0.00 0.00 44 1013.8
20260830234121 35 360 4.8 17.7 0.00 0.00 0.00 45 1013.8
20260830234022 35 360 4.8 17.7 0.00 0.00 0.00 44 1013.8
20260830233922 35 360 6.4 17.7 0.00 0.00 0.00 44 1013.8
20260830233828 35 360 4.8 17.7 0.00 0.00 0.00 44 1013.8
20260830233727 35 360 6.4 17.7 0.00 0.00 0.00 44 1013.8
20260830233628 35 360 8.0 17.7 0.00 0.00 0.00 44 1013.8
20260830233529 35 360 9.7 17.7 0.00 0.00 0.00 44 1013.9
20260830233429 35 360 9.7 17.7 0.00 0.00 0.00 44 1013.9
20260830233329 35 360 9.7 17.7 0.00 0.00 0.00 43 1013.9
20260830233247 35 360 6.4 12.9 0.00 0.00 0.00 44 1013.9
20260830233131 35 360 6.4 9.7 0.00 0.00 0.00 42 1013.9
20260830233052 35 360 6.4 14.5 0.00 0.00 0.00 43 1013.8
20260830232931 35 360 6.4 14.5 0.00 0.00 0.00 43 1013.8
20260830232832 35 360 4.8 14.5 0.00 0.00 0.00 44 1013.8
20260830232752 35 360 4.8 14.5 0.00 0.00 0.00 44 1013.8
20260830232632 35 360 4.8 14.5 0.00 0.00 0.00 43 1013.8
20260830232553 35 360 4.8 14.5 0.00 0.00 0.00 43 1013.8
20260830232432 35 360 3.2 14.5 0.00 0.00 0.00 43 1013.8
20260830232335 35 360 4.8 16.1 0.00 0.00 0.00 44 1013.9
20260830232216 35 360 4.8 16.1 0.00 0.00 0.00 44 1013.9
20260830232116 35 360 8.0 16.1 0.00 0.00 0.00 44 1013.9
20260830232016 35 360 8.0 16.1 0.00 0.00 0.00 44 1013.8
20260830231917 35 360 9.7 16.1 0.00 0.00 0.00 44 1013.9
20260830231817 35 360 9.7 16.1 0.00 0.00 0.00 43 1013.9
20260830231722 35 197 9.7 16.1 0.00 0.00 0.00 43 1013.9
20260830231622 35 360 8.0 16.1 0.00 0.00 0.00 44 1013.9
20260830231522 35 360 8.0 16.1 0.00 0.00 0.00 44 1013.8
20260830231422 35 360 9.7 16.1 0.00 0.00 0.00 44 1013.8
20260830231322 35 360 9.7 16.1 0.00 0.00 0.00 43 1013.8
20260830231223 35 360 11.3 16.1 0.00 0.00 0.00 43 1013.8
20260830231124 35 360 9.7 16.1 0.00 0.00 0.00 43 1013.8
20260830231028 35 360 8.0 16.1 0.00 0.00 0.00 43 1013.8
20260830230929 35 360 6.4 14.5 0.00 0.00 0.00 43 1013.9
20260830230830 35 360 4.8 14.5 0.00 0.00 0.00 43 1013.8
20260830230731 35 360 3.2 14.5 0.00 0.00 0.00 42 1013.9
20260830230652 35 360 3.2 14.5 0.00 0.00 0.00 42 1013.9
20260830230531 35 360 4.8 14.5 0.00 0.00 0.00 43 1013.8
20260830230431 35 360 4.8 17.7 0.00 0.00 0.00 42 1013.8
20260830230316 35 360 6.4 17.7 0.00 0.00 0.00 44 1013.9
20260830230217 35 360 6.4 17.7 0.00 0.00 0.00 44 1013.9
20260830230118 35 360 6.4 17.7 0.00 0.00 0.00 43 1013.9
20260830230019 35 360 6.4 17.7 0.00 0.00 0.00 43 1013.9
20260830225920 35 360 8.0 17.7 0.00 0.00 0.00 42 1014.0
20260830225822 35 360 8.0 17.7 0.00 0.00 0.00 42 1013.9
20260830225725 35 360 8.0 17.7 0.00 0.00 0.00 42 1013.9
20260830225626 35 360 6.4 17.7 0.00 0.00 0.00 42 1013.9
20260830225526 36 360 4.8 12.9 0.00 0.00 0.00 42 1013.9
20260830225426 35 360 3.2 12.9 0.00 0.00 0.00 42 1013.9
20260830225327 35 360 4.8 12.9 0.00 0.00 0.00 42 1013.9
20260830225227 35 360 4.8 9.7 0.00 0.00 0.00 42 1013.9
20260830225127 35 360 3.2 9.7 0.00 0.00 0.00 43 1013.9
20260830225053 35 360 4.8 9.7 0.00 0.00 0.00 43 1013.9
20260830224932 35 360 4.8 12.9 0.00 0.00 0.00 44 1013.9
20260830224852 35 360 4.8 14.5 0.00 0.00 0.00 44 1013.9
20260830224732 35 157 4.8 19.3 0.00 0.00 0.00 43 1013.9
20260830224632 35 360 4.8 19.3 0.00 0.00 0.00 44 1014.0
20260830224533 35 360 4.8 19.3 0.00 0.00 0.00 44 1013.9
20260830224433 35 121 6.4 19.3 0.00 0.00 0.00 43 1014.0
20260830224318 35 360 6.4 19.3 0.00 0.00 0.00 43 1014.0
20260830224219 35 360 8.0 19.3 0.00 0.00 0.00 43 1014.1
20260830224119 35 360 8.0 20.9 0.00 0.00 0.00 42 1014.0
20260830224020 35 151 6.4 20.9 0.00 0.00 0.00 42 1014.1
20260830223921 35 360 4.8 20.9 0.00 0.00 0.00 43 1014.1
20260830223822 35 360 3.2 20.9 0.00 0.00 0.00 43 1014.1
20260830223727 35 360 4.8 20.9 0.00 0.00 0.00 43 1014.2
20260830223628 35 360 6.4 20.9 0.00 0.00 0.00 44 1014.1
20260830223528 35 360 11.3 20.9 0.00 0.00 0.00 44 1014.1
20260830223429 35 360 14.5 25.7 0.00 0.00 0.00 44 1014.1
20260830223328 35 360 16.1 25.7 0.00 0.00 0.00 43 1014.1
20260830223229 35 360 14.5 25.7 0.00 0.00 0.00 43 1014.1
20260830223129 35 159 12.9 25.7 0.00 0.00 0.00 44 1014.1
20260830223034 35 360 9.7 25.7 0.00 0.00 0.00 45 1014.0
20260830222934 35 360 6.4 25.7 0.00 0.00 0.00 45 1014.1
20260830222816 35 360 9.7 25.7 0.00 0.00 0.00 45 1014.1
20260830222716 35 360 11.3 25.7 0.00 0.00 0.00 45 1014.0
20260830222617 35 360 12.9 25.7 0.00 0.00 0.00 45 1014.0
20260830222518 35 360 12.9 25.7 0.00 0.00 0.00 46 1014.0
20260830222422 35 360 12.9 24.1 0.00 0.00 0.00 45 1013.9
20260830222322 35 360 11.3 20.9 0.00 0.00 0.00 45 1014.1
20260830222224 35 360 11.3 20.9 0.00 0.00 0.00 45 1014.0
20260830222125 35 360 9.7 20.9 0.00 0.00 0.00 44 1014.0
20260830222045 35 360 9.7 20.9 0.00 0.00 0.00 43 1014.0
20260830221926 35 360 11.3 20.9 0.00 0.00 0.00 44 1014.0
20260830221826 35 360 11.3 20.9 0.00 0.00 0.00 44 1014.1
20260830221751 35 360 12.9 20.9 0.00 0.00 0.00 44 1014.1
20260830221629 35 360 12.9 20.9 0.00 0.00 0.00 44 1014.1
20260830221530 35 360 11.3 24.1 0.00 0.00 0.00 42 1014.1
20260830221431 35 360 9.7 24.1 0.00 0.00 0.00 42 1014.1
20260830221331 35 360 9.7 24.1 0.00 0.00 0.00 42 1014.1
20260830221231 35 360 11.3 24.1 0.00 0.00 0.00 42 1014.1
20260830221116 35 360 12.9 24.1 0.00 0.00 0.00 44 1014.2
20260830221017 35 360 14.5 24.1 0.00 0.00 0.00 43 1014.3
20260830220937 35 360 14.5 24.1 0.00 0.00 0.00 43 1014.2
20260830220817 35 360 16.1 24.1 0.00 0.00 0.00 43 1014.3
20260830220718 35 360 16.1 24.1 0.00 0.00 0.00 43 1014.3
20260830220619 35 360 16.1 24.1 0.00 0.00 0.00 44 1014.2
20260830220519 35 360 14.5 22.5 0.00 0.00 0.00 43 1014.3
20260830220424 35 144 16.1 22.5 0.00 0.00 0.00 44 1014.3
20260830220324 35 360 16.1 22.5 0.00 0.00 0.00 44 1014.3
20260830220225 35 360 12.9 22.5 0.00 0.00 0.00 45 1014.3
20260830220125 35 360 11.3 22.5 0.00 0.00 0.00 46 1014.3
20260830220025 35 360 6.4 20.9 0.00 0.00 0.00 46 1014.4
20260830215926 35 360 6.4 20.9 0.00 0.00 0.00 45 1014.3
20260830215828 35 360 9.7 20.9 0.00 0.00 0.00 45 1014.4
20260830215732 35 360 12.9 20.9 0.00 0.00 0.00 45 1014.4
20260830215653 35 360 14.5 20.9 0.00 0.00 0.00 45 1014.4
20260830215533 35 360 12.9 20.9 0.00 0.00 0.00 44 1014.3
20260830215432 35 360 11.3 20.9 0.00 0.00 0.00 45 1014.3
20260830215332 35 360 9.7 20.9 0.00 0.00 0.00 44 1014.4
20260830215234 35 360 12.9 20.9 0.00 0.00 0.00 44 1014.4
20260830215155 35 360 12.9 20.9 0.00 0.00 0.00 44 1014.4
20260830215017 35 360 12.9 20.9 0.00 0.00 0.00 43 1014.4
20260830214916 35 360 12.9 25.7 0.00 0.00 0.00 44 1014.4
20260830214817 35 360 11.3 25.7 0.00 0.00 0.00 44 1014.5
20260830214717 35 360 11.3 30.6 0.00 0.00 0.00 45 1014.4
20260830214618 35 360 12.9 30.6 0.00 0.00 0.00 45 1014.4
20260830214516 35 360 12.9 30.6 0.00 0.00 0.00 45 1014.4
20260830214416 35 360 12.9 30.6 0.00 0.00 0.00 45 1014.5
20260830214321 35 360 11.3 30.6 0.00 0.00 0.00 45 1014.5
20260830214222 35 360 12.9 30.6 0.00 0.00 0.00 44 1014.5
20260830214122 35 360 12.9 30.6 0.00 0.00 0.00 46 1014.5
20260830214022 35 360 14.5 30.6 0.00 0.00 0.00 45 1014.5
20260830213924 35 360 16.1 30.6 0.00 0.00 0.00 45 1014.5
20260830213824 35 360 14.5 30.6 0.00 0.00 0.00 45 1014.5
20260830213725 35 360 12.9 30.6 0.00 0.00 0.00 46 1014.5
20260830213647 35 360 8.0 25.7 0.00 0.00 0.00 45 1014.5
20260830213527 35 360 4.8 25.7 0.00 0.00 0.00 46 1014.5
20260830213427 35 360 8.0 25.7 0.00 0.00 0.00 45 1014.5
20260830213326 35 360 9.7 32.2 0.00 0.00 0.00 45 1014.5
20260830213226 35 360 9.7 32.2 0.00 0.00 0.00 45 1014.5
20260830213127 35 360 11.3 32.2 0.00 0.00 0.00 45 1014.6
20260830213028 35 360 11.3 32.2 0.00 0.00 0.00 46 1014.6
20260830212927 35 360 12.9 32.2 0.00 0.00 0.00 45 1014.6
20260830212832 35 360 12.9 32.2 0.00 0.00 0.00 45 1014.6
20260830212732 35 360 16.1 32.2 0.00 0.00 0.00 46 1014.6
20260830212632 35 360 14.5 32.2 0.00 0.00 0.00 46 1014.7
20260830212552 35 360 12.9 32.2 0.00 0.00 0.00 45 1014.7
20260830212452 35 360 9.7 19.3 0.00 0.00 0.00 45 1014.7
20260830212331 35 360 9.7 19.3 0.00 0.00 0.00 45 1014.7
20260830212252 35 360 9.7 22.5 0.00 0.00 0.00 45 1014.8
20260830212131 35 360 9.7 22.5 0.00 0.00 0.00 46 1014.7
20260830212035 35 360 9.7 22.5 0.00 0.00 0.00 47 1014.8
20260830211916 35 360 11.3 32.2 0.00 0.00 0.00 46 1014.8
20260830211816 35 360 12.9 32.2 0.00 0.00 0.00 45 1014.8
20260830211716 35 360 12.9 32.2 0.00 0.00 0.00 45 1014.8
20260830211618 35 360 12.9 32.2 0.00 0.00 0.00 45 1014.8
20260830211517 35 360 11.3 32.2 0.00 0.00 0.00 46 1014.8
20260830211442 35 360 11.3 32.2 0.00 0.00 0.00 46 1014.8
20260830211320 35 146 14.5 32.2 0.00 0.00 0.00 46 1015.0
20260830211221 35 360 17.7 32.2 0.00 0.00 0.00 45 1015.0
20260830211121 35 360 17.7 32.2 0.00 0.00 0.00 47 1015.0
20260830211021 35 360 14.5 25.7 0.00 0.00 0.00 47 1014.9
20260830210922 35 360 11.3 27.4 0.00 0.00 0.00 47 1015.0
20260830210822 35 360 8.0 27.4 0.00 0.00 0.00 47 1015.0
20260830210727 35 360 6.4 27.4 0.00 0.00 0.00 46 1015.0
20260830210647 35 360 6.4 27.4 0.00 0.00 0.00 46 1014.9
20260830210526 35 360 8.0 30.6 0.00 0.00 0.00 47 1014.9
20260830210446 35 360 11.3 30.6 0.00 0.00 0.00 46 1015.1
20260830210326 35 360 14.5 30.6 0.00 0.00 0.00 47 1015.1
20260830210227 35 360 16.1 30.6 0.00 0.00 0.00 47 1015.1
20260830210127 35 360 19.3 30.6 0.00 0.00 0.00 47 1015.2
20260830210027 35 360 20.9 30.6 0.00 0.00 0.00 47 1015.1
20260830205931 35 360 20.9 30.6 0.00 0.00 0.00 47 1015.2
20260830205833 35 360 19.3 30.6 0.00 0.00 0.00 47 1015.1
20260830205732 35 360 19.3 27.4 0.00 0.00 0.00 47 1015.1
20260830205633 35 360 16.1 27.4 0.00 0.00 0.00 48 1015.2
20260830205553 35 360 12.9 27.4 0.00 0.00 0.00 48 1015.2
20260830205432 35 360 9.7 25.7 0.00 0.00 0.00 48 1015.2
20260830205317 34 360 6.4 24.1 0.00 0.00 0.00 48 1015.2
20260830205216 34 360 6.4 24.1 0.00 0.00 0.00 49 1015.2
20260830205117 34 360 6.4 24.1 0.00 0.00 0.00 49 1015.2
20260830205037 34 360 9.7 24.1 0.00 0.00 0.00 48 1015.2
20260830204916 34 360 11.3 25.7 0.00 0.00 0.00 47 1015.2
20260830204817 35 360 11.3 25.7 0.00 0.00 0.00 48 1015.3
20260830204717 35 360 9.7 25.7 0.00 0.00 0.00 49 1015.3
20260830204618 35 360 9.7 25.7 0.00 0.00 0.00 48 1015.3
20260830204523 35 360 9.7 25.7 0.00 0.00 0.00 49 1015.3
20260830204422 35 360 12.9 25.7 0.00 0.00 0.00 48 1015.3
20260830204323 35 360 12.9 25.7 0.00 0.00 0.00 48 1015.3
20260830204221 35 360 14.5 25.7 0.00 0.00 0.00 49 1015.4
20260830204142 35 360 14.5 25.7 0.00 0.00 0.00 49 1015.4
20260830204022 35 360 14.5 25.7 0.00 0.00 0.00 49 1015.4
20260830203923 35 360 14.5 25.7 0.00 0.00 0.00 49 1015.4
20260830203823 34 360 12.9 29.0 0.00 0.00 0.00 49 1015.4
20260830203727 34 360 12.9 35.4 0.00 0.00 0.00 49 1015.4
20260830203628 34 360 11.3 35.4 0.00 0.00 0.00 49 1015.5
20260830203527 34 360 11.3 35.4 0.00 0.00 0.00 49 1015.5
20260830203427 34 360 12.9 35.4 0.00 0.00 0.00 49 1015.5
20260830203327 34 360 12.9 35.4 0.00 0.00 0.00 49 1015.5
20260830203228 34 360 16.1 35.4 0.00 0.00 0.00 49 1015.6
20260830203129 34 360 17.7 35.4 0.00 0.00 0.00 49 1015.5
20260830203034 34 360 16.1 35.4 0.00 0.00 0.00 49 1015.5
20260830202953 34 360 12.9 35.4 0.00 0.00 0.00 50 1015.6
20260830202833 34 360 8.0 22.5 0.00 0.00 0.00 50 1015.5
20260830202734 34 360 8.0 29.0 0.00 0.00 0.00 50 1015.6
20260830202635 34 360 8.0 29.0 0.00 0.00 0.00 51 1015.6
20260830202535 34 360 8.0 29.0 0.00 0.00 0.00 51 1015.6
20260830202416 34 360 11.3 29.0 0.00 0.00 0.00 50 1015.6
20260830202320 34 360 11.3 29.0 0.00 0.00 0.00 51 1015.6
20260830202221 34 360 9.7 29.0 0.00 0.00 0.00 51 1015.6
20260830202123 34 160 9.7 29.0 0.00 0.00 0.00 51 1015.7
20260830202022 34 360 14.5 29.0 0.00 0.00 0.00 50 1015.6
20260830201922 34 360 19.3 29.0 0.00 0.00 0.00 51 1015.8
20260830201842 34 360 19.3 29.0 0.00 0.00 0.00 51 1015.7
20260830201722 34 360 16.1 27.4 0.00 0.00 0.00 50 1015.6
20260830201642 34 360 16.1 27.4 0.00 0.00 0.00 50 1015.7
20260830201541 34 360 14.5 27.4 0.00 0.00 0.00 50 1015.7
20260830201425 34 360 16.1 27.4 0.00 0.00 0.00 51 1015.7
20260830201326 34 360 14.5 27.4 0.00 0.00 0.00 51 1015.7
20260830201226 34 360 12.9 30.6 0.00 0.00 0.00 51 1015.7
20260830201126 34 360 9.7 30.6 0.00 0.00 0.00 50 1015.5
20260830201026 34 360 8.0 30.6 0.00 0.00 0.00 51 1015.6
20260830200927 34 360 9.7 30.6 0.00 0.00 0.00 51 1015.7
20260830200832 34 360 11.3 30.6 0.00 0.00 0.00 52 1015.8
20260830200732 34 360 14.5 30.6 0.00 0.00 0.00 53 1015.8
20260830200654 33 360 17.7 30.6 0.00 0.00 0.00 53 1015.8
20260830200534 33 360 17.7 30.6 0.00 0.00 0.00 52 1015.8
20260830200454 34 360 17.7 30.6 0.00 0.00 0.00 52 1015.9
20260830200334 34 360 19.3 27.4 0.00 0.00 0.00 52 1015.9
20260830200235 34 360 16.1 27.4 0.00 0.00 0.00 52 1015.9
20260830200155 34 360 12.9 27.4 0.00 0.00 0.00 52 1015.9
20260830200018 33 360 6.4 27.4 0.00 0.00 0.00 51 1015.8
20260830195918 33 360 8.0 22.5 0.00 0.00 0.00 52 1015.9
20260830195820 33 360 6.4 24.1 0.00 0.00 0.00 52 1016.0
20260830195719 33 360 8.0 24.1 0.00 0.00 0.00 51 1015.9
20260830195619 33 360 11.3 24.1 0.00 0.00 0.00 51 1015.9
20260830195519 33 360 14.5 24.1 0.00 0.00 0.00 51 1016.0
20260830195440 33 360 14.5 24.1 0.00 0.00 0.00 51 1016.1
20260830195340 34 360 12.9 24.1 0.00 0.00 0.00 51 1016.0
20260830195224 34 360 14.5 24.1 0.00 0.00 0.00 51 1016.1
20260830195124 34 360 16.1 24.1 0.00 0.00 0.00 51 1016.1
20260830195024 35 360 17.7 24.1 0.00 0.00 0.00 51 1016.1
20260830194924 35 360 12.9 27.4 0.00 0.00 0.00 51 1016.2
20260830194825 35 360 11.3 27.4 0.00 0.00 0.00 50 1016.1
20260830194725 34 360 6.4 27.4 0.00 0.00 0.00 50 1016.1
20260830194630 34 360 4.8 27.4 0.00 0.00 0.00 50 1016.1
20260830194530 34 360 8.0 27.4 0.00 0.00 0.00 52 1016.1
20260830194431 34 360 9.7 27.4 0.00 0.00 0.00 51 1016.2
20260830194331 34 360 12.9 27.4 0.00 0.00 0.00 51 1016.3
20260830194232 34 360 16.1 27.4 0.00 0.00 0.00 51 1016.2
20260830194134 34 360 16.1 27.4 0.00 0.00 0.00 51 1016.4
20260830194018 34 360 12.9 27.4 0.00 0.00 0.00 51 1016.3
20260830193919 34 360 11.3 24.1 0.00 0.00 0.00 51 1016.3
20260830193819 33 360 11.3 24.1 0.00 0.00 0.00 51 1016.2
20260830193719 33 360 11.3 24.1 0.00 0.00 0.00 51 1016.4
20260830193620 34 360 9.7 24.1 0.00 0.00 0.00 51 1016.5
20260830193520 34 360 11.3 24.1 0.00 0.00 0.00 52 1016.4
20260830193420 34 360 11.3 24.1 0.00 0.00 0.00 51 1016.5
20260830193325 34 360 12.9 24.1 0.00 0.00 0.00 52 1016.4
20260830193225 34 360 11.3 24.1 0.00 0.00 0.00 51 1016.5
20260830193126 33 360 8.0 27.4 0.00 0.00 0.00 53 1016.4
20260830193026 33 360 6.4 29.0 0.00 0.00 0.00 52 1016.4
20260830192947 33 360 6.4 29.0 0.00 0.00 0.00 52 1016.4
20260830192827 33 164 6.4 29.0 0.00 0.00 0.00 52 1016.5
20260830192727 33 115 9.7 29.0 0.00 0.00 0.00 52 1016.5
20260830192632 33 114 12.9 29.0 0.00 0.00 0.00 52 1016.6
20260830192532 33 360 17.7 29.0 0.00 0.00 0.00 52 1016.6
20260830192433 33 360 19.3 29.0 0.00 0.00 0.00 52 1016.6
20260830192354 33 360 17.7 29.0 0.00 0.00 0.00 52 1016.6
20260830192234 33 360 14.5 30.6 0.00 0.00 0.00 54 1016.6
20260830192135 33 360 9.7 30.6 0.00 0.00 0.00 53 1016.5
20260830192035 33 360 6.4 30.6 0.00 0.00 0.00 53 1016.6
20260830191919 33 360 9.7 30.6 0.00 0.00 0.00 53 1016.6
20260830191819 33 117 11.3 30.6 0.00 0.00 0.00 54 1016.6
20260830191740 33 360 12.9 30.6 0.00 0.00 0.00 53 1016.6
20260830191639 33 360 16.1 30.6 0.00 0.00 0.00 54 1016.6
20260830191518 33 360 14.5 30.6 0.00 0.00 0.00 54 1016.6
20260830191418 33 360 12.9 27.4 0.00 0.00 0.00 53 1016.7
20260830191319 33 360 8.0 20.9 0.00 0.00 0.00 53 1016.7
20260830191239 33 360 6.4 20.9 0.00 0.00 0.00 53 1016.7
20260830191123 33 360 4.8 20.9 0.00 0.00 0.00 53 1016.7
20260830191023 33 360 6.4 20.9 0.00 0.00 0.00 52 1016.8
20260830190924 33 360 9.7 20.9 0.00 0.00 0.00 53 1016.8
20260830190824 33 360 11.3 20.9 0.00 0.00 0.00 53 1016.8
20260830190724 34 360 11.3 20.9 0.00 0.00 0.00 53 1016.9
20260830190645 33 360 9.7 20.9 0.00 0.00 0.00 51 1016.7
20260830190523 33 360 8.0 27.4 0.00 0.00 0.00 51 1016.8
20260830190422 33 360 6.4 27.4 0.00 0.00 0.00 52 1016.8
20260830190326 33 360 6.4 27.4 0.00 0.00 0.00 55 1016.9
20260830190226 33 360 8.0 27.4 0.00 0.00 0.00 54 1016.8
20260830190127 33 117 9.7 27.4 0.00 0.00 0.00 55 1016.8
20260830190027 33 360 12.9 27.4 0.00 0.00 0.00 54 1016.9
20260830185927 33 360 12.9 27.4 0.00 0.00 0.00 54 1016.9
20260830185828 33 360 12.9 27.4 0.00 0.00 0.00 54 1016.9
20260830185727 33 360 9.7 27.4 0.00 0.00 0.00 54 1016.9
20260830185632 33 360 8.0 27.4 0.00 0.00 0.00 53 1016.9
20260830185533 34 360 4.8 17.7 0.00 0.00 0.00 55 1016.9
20260830185434 33 360 3.2 20.9 0.00 0.00 0.00 55 1017.0
20260830185335 33 360 3.2 20.9 0.00 0.00 0.00 55 1016.9
20260830185216 33 360 4.8 20.9 0.00 0.00 0.00 55 1017.0
20260830185116 33 360 6.4 20.9 0.00 0.00 0.00 57 1017.1
20260830185037 33 360 8.0 24.1 0.00 0.00 0.00 57 1017.0
20260830184921 33 360 9.7 24.1 0.00 0.00 0.00 57 1017.1
20260830184821 33 360 11.3 24.1 0.00 0.00 0.00 56 1017.1
20260830184720 32 360 9.7 24.1 0.00 0.00 0.00 57 1017.0
20260830184621 32 360 9.7 24.1 0.00 0.00 0.00 56 1017.1
20260830184522 32 360 8.0 24.1 0.00 0.00 0.00 56 1017.1
20260830184442 32 360 8.0 24.1 0.00 0.00 0.00 55 1017.1
20260830184322 32 360 9.7 24.1 0.00 0.00 0.00 55 1017.1
20260830184226 32 360 11.3 24.1 0.00 0.00 0.00 55 1017.1
20260830184146 32 360 11.3 24.1 0.00 0.00 0.00 55 1017.1
20260830184026 32 360 9.7 24.1 0.00 0.00 0.00 56 1017.1
20260830183927 32 360 9.7 22.5 0.00 0.00 0.00 56 1017.1
20260830183827 32 360 8.0 22.5 0.00 0.00 0.00 56 1017.1
20260830183728 32 360 9.7 25.7 0.00 0.00 0.00 55 1017.2
20260830183649 32 360 11.3 25.7 0.00 0.00 0.00 55 1017.2
20260830183532 32 360 12.9 25.7 0.00 0.00 0.00 56 1017.2
20260830183433 32 360 14.5 25.7 0.00 0.00 0.00 55 1017.2
20260830183334 32 360 12.9 25.7 0.00 0.00 0.00 56 1017.2
20260830183234 33 360 14.5 25.7 0.00 0.00 0.00 56 1017.2
20260830183135 32 360 12.9 25.7 0.00 0.00 0.00 56 1017.2
20260830183035 33 360 14.5 25.7 0.00 0.00 0.00 55 1017.3
20260830182920 33 360 14.5 25.7 0.00 0.00 0.00 55 1017.3
20260830182842 33 360 12.9 25.7 0.00 0.00 0.00 55 1017.3
20260830182720 33 360 12.9 24.1 0.00 0.00 0.00 56 1017.3
20260830182621 33 360 11.3 24.1 0.00 0.00 0.00 56 1017.3
20260830182542 33 139 14.5 25.7 0.00 0.00 0.00 56 1017.4
20260830182421 33 360 14.5 25.7 0.00 0.00 0.00 56 1017.4
20260830182342 33 360 14.5 25.7 0.00 0.00 0.00 57 1017.5
20260830182222 33 360 9.7 27.4 0.00 0.00 0.00 57 1017.4
20260830182121 33 360 8.0 27.4 0.00 0.00 0.00 56 1017.5
20260830182027 33 360 4.8 27.4 0.00 0.00 0.00 56 1017.5
20260830181927 33 360 4.8 27.4 0.00 0.00 0.00 56 1017.5
20260830181828 33 360 4.8 27.4 0.00 0.00 0.00 55 1017.5
20260830181727 33 360 9.7 27.4 0.00 0.00 0.00 55 1017.4
20260830181628 33 360 12.9 27.4 0.00 0.00 0.00 56 1017.5
20260830181549 33 360 12.9 27.4 0.00 0.00 0.00 54 1017.4
20260830181448 34 360 11.3 27.4 0.00 0.00 0.00 55 1017.4
20260830181348 34 360 6.4 17.7 0.00 0.00 0.00 55 1017.5
20260830181230 34 159 6.4 20.9 0.00 0.00 0.00 55 1017.4
20260830181131 33 360 6.4 22.5 0.00 0.00 0.00 55 1017.5
20260830181031 33 360 6.4 22.5 0.00 0.00 0.00 56 1017.5
20260830180931 33 360 8.0 22.5 0.00 0.00 0.00 56 1017.5
20260830180831 33 360 8.0 22.5 0.00 0.00 0.00 56 1017.6
20260830180729 32 360 8.0 22.5 0.00 0.00 0.00 57 1017.6
20260830180649 32 360 9.7 22.5 0.00 0.00 0.00 56 1017.7
20260830180526 32 360 12.9 22.5 0.00 0.00 0.00 57 1017.8
20260830180431 32 360 12.9 22.5 0.00 0.00 0.00 57 1017.8
20260830180352 32 360 12.9 22.5 0.00 0.00 0.00 56 1017.9
20260830180230 32 360 11.3 25.7 0.00 0.00 0.00 57 1017.9
20260830180129 32 360 12.9 25.7 0.00 0.00 0.00 58 1017.9
20260830180030 32 360 12.9 25.7 0.00 0.00 0.00 57 1017.9
20260830175930 32 360 12.9 25.7 0.00 0.00 0.00 57 1017.9
20260830175832 32 360 11.3 25.7 0.00 0.00 0.00 58 1018.0
20260830175735 32 360 8.0 25.7 0.00 0.00 0.00 56 1018.0
20260830175616 32 360 9.7 25.7 0.00 0.00 0.00 56 1018.0
20260830175516 32 196 9.7 25.7 0.00 0.00 0.00 56 1018.1
20260830175437 32 360 11.3 24.1 0.00 0.00 0.00 56 1018.0
20260830175358 32 360 9.7 22.5 0.00 0.00 0.00 56 1018.1
20260830175236 33 360 8.0 22.5 0.00 0.00 0.00 55 1018.1
20260830175156 33 360 6.4 14.5 0.00 0.00 0.00 57 1018.1
20260830175055 33 360 4.8 19.3 0.00 0.00 0.00 57 1018.1
20260830174920 33 360 6.4 19.3 0.00 0.00 0.00 57 1018.2
20260830174840 32 360 4.8 20.9 0.00 0.00 0.00 57 1018.2
20260830174719 32 360 6.4 27.4 0.00 0.00 0.00 57 1018.2
20260830174619 32 360 6.4 27.4 0.00 0.00 0.00 57 1018.2
20260830174519 32 360 4.8 27.4 0.00 0.00 0.00 58 1018.3
20260830174420 32 360 6.4 27.4 0.00 0.00 0.00 58 1018.2
20260830174320 32 360 11.3 27.4 0.00 0.00 0.00 59 1018.3
20260830174219 32 360 14.5 27.4 0.00 0.00 0.00 59 1018.3
20260830174119 32 360 12.9 27.4 0.00 0.00 0.00 58 1018.3
20260830174044 32 360 11.3 27.4 0.00 0.00 0.00 59 1018.2
20260830173923 32 360 12.9 27.4 0.00 0.00 0.00 58 1018.3
20260830173824 32 360 12.9 24.1 0.00 0.00 0.00 57 1018.3
20260830173725 32 360 11.3 24.1 0.00 0.00 0.00 57 1018.4
20260830173645 32 360 6.4 20.9 0.00 0.00 0.00 59 1018.4
20260830173524 32 360 3.2 16.1 0.00 0.00 0.00 59 1018.4
20260830173423 32 360 4.8 19.3 0.00 0.00 0.00 61 1018.4
20260830173343 32 360 8.0 19.3 0.00 0.00 0.00 60 1018.4
20260830173227 32 360 8.0 19.3 0.00 0.00 0.00 57 1018.4
20260830173127 32 180 6.4 19.3 0.00 0.00 0.00 57 1018.4
20260830173029 32 360 4.8 19.3 0.00 0.00 0.00 58 1018.4
20260830173005 32 360 4.8 19.3 0.00 0.00 0.00 59 1018.5
20260830172729 32 360 6.4 19.3 0.00 0.00 0.00 58 1018.4
20260830172634 32 360 4.8 19.3 0.00 0.00 0.00 58 1018.4
20260830172554 33 360 4.8 17.7 0.00 0.00 0.00 60 1018.4
20260830172433 32 360 3.2 17.7 0.00 0.00 0.00 61 1018.5
20260830172353 32 360 4.8 17.7 0.00 0.00 0.00 61 1018.4
20260830172233 32 360 6.4 17.7 0.00 0.00 0.00 61 1018.5
20260830172134 32 360 8.0 20.9 0.00 0.00 0.00 61 1018.4
20260830172034 32 180 9.7 20.9 0.00 0.00 0.00 61 1018.6
20260830171919 32 360 9.7 20.9 0.00 0.00 0.00 61 1018.5
20260830171819 32 360 11.3 20.9 0.00 0.00 0.00 60 1018.6
20260830171720 32 360 11.3 20.9 0.00 0.00 0.00 61 1018.5
20260830171641 32 360 11.3 20.9 0.00 0.00 0.00 61 1018.6
20260830171521 32 360 11.3 20.9 0.00 0.00 0.00 61 1018.6
20260830171421 31 360 12.9 20.9 0.00 0.00 0.00 62 1018.6
20260830171321 32 360 11.3 20.9 0.00 0.00 0.00 62 1018.6
20260830171226 31 360 9.7 20.9 0.00 0.00 0.00 62 1018.7
20260830171127 31 360 8.0 19.3 0.00 0.00 0.00 62 1018.6
20260830171028 31 360 8.0 19.3 0.00 0.00 0.00 62 1018.6
20260830170928 31 360 8.0 19.3 0.00 0.00 0.00 61 1018.6
20260830170828 31 360 4.8 19.3 0.00 0.00 0.00 62 1018.7
20260830170729 31 360 3.2 19.3 0.00 0.00 0.00 62 1018.7
20260830170630 31 360 4.8 19.3 0.00 0.00 0.00 62 1018.7
20260830170534 31 360 8.0 19.3 0.00 0.00 0.00 63 1018.7
20260830170455 31 360 11.3 19.3 0.00 0.00 0.00 62 1018.7
20260830170354 31 360 11.3 19.3 0.00 0.00 0.00 60 1018.7
20260830170254 32 360 8.0 17.7 0.00 0.00 0.00 60 1018.7
20260830170133 32 360 6.4 17.7 0.00 0.00 0.00 60 1018.8
20260830170034 32 360 4.8 14.5 0.00 0.00 0.00 60 1018.8
20260830165934 32 360 3.2 14.5 0.00 0.00 0.00 60 1018.8
20260830165820 32 153 4.8 19.3 0.00 0.00 0.00 61 1018.7
20260830165719 32 360 4.8 19.3 0.00 0.00 0.00 62 1018.7
20260830165619 32 360 4.8 19.3 0.00 0.00 0.00 62 1018.7
20260830165520 32 360 4.8 19.3 0.00 0.00 0.00 63 1018.8
20260830165440 31 360 6.4 19.3 0.00 0.00 0.00 63 1018.8
20260830165320 31 360 6.4 19.3 0.00 0.00 0.00 63 1018.8
20260830165220 31 360 8.0 19.3 0.00 0.00 0.00 63 1018.8
20260830165124 31 360 8.0 19.3 0.00 0.00 0.00 62 1018.8
20260830165024 31 360 9.7 19.3 0.00 0.00 0.00 62 1018.9
20260830164925 31 360 6.4 19.3 0.00 0.00 0.00 62 1018.8
20260830164846 31 360 6.4 19.3 0.00 0.00 0.00 62 1019.0
20260830164725 32 360 6.4 19.3 0.00 0.00 0.00 62 1018.9
20260830164626 32 360 8.0 19.3 0.00 0.00 0.00 63 1018.8
20260830164526 31 360 9.7 19.3 0.00 0.00 0.00 63 1018.9
20260830164430 31 360 9.7 17.7 0.00 0.00 0.00 62 1018.9
20260830164331 32 360 6.4 17.7 0.00 0.00 0.00 62 1018.9
20260830164232 32 360 3.2 17.7 0.00 0.00 0.00 61 1018.9
20260830164132 32 360 3.2 17.7 0.00 0.00 0.00 62 1018.8
20260830164033 32 360 3.2 17.7 0.00 0.00 0.00 63 1018.9
20260830163932 32 360 4.8 17.7 0.00 0.00 0.00 65 1018.8
20260830163833 31 360 4.8 17.7 0.00 0.00 0.00 65 1018.9
20260830163752 31 360 8.0 17.7 0.00 0.00 0.00 64 1018.9
20260830163616 31 360 8.0 17.7 0.00 0.00 0.00 63 1019.0
20260830163517 31 360 9.7 17.7 0.00 0.00 0.00 63 1019.0
20260830163417 31 360 8.0 17.7 0.00 0.00 0.00 63 1019.1
20260830163338 31 360 4.8 17.7 0.00 0.00 0.00 63 1019.0
20260830163217 31 360 4.8 25.7 0.00 0.00 0.00 63 1019.0
20260830163118 31 360 3.2 25.7 0.00 0.00 0.00 65 1019.0
20260830163038 31 360 3.2 25.7 0.00 0.00 0.00 65 1019.0
20260830162922 31 360 6.4 25.7 0.00 0.00 0.00 65 1018.9
20260830162844 31 360 9.7 25.7 0.00 0.00 0.00 65 1019.0
20260830162721 30 360 12.9 25.7 0.00 0.00 0.00 64 1019.0
20260830162622 31 360 11.3 25.7 0.00 0.00 0.00 64 1018.9
20260830162523 31 360 8.0 25.7 0.00 0.00 0.00 65 1018.9
20260830162423 30 360 8.0 25.7 0.00 0.00 0.00 65 1018.9
20260830162323 30 360 12.9 25.7 0.00 0.00 0.00 65 1018.9
20260830162228 30 360 14.5 25.7 0.00 0.00 0.00 64 1018.9
20260830162129 30 360 12.9 25.7 0.00 0.00 0.00 65 1019.0
20260830162029 30 360 6.4 17.7 0.00 0.00 0.00 65 1019.0
20260830161930 31 360 3.2 17.7 0.00 0.00 0.00 65 1018.9
20260830161831 30 178 3.2 17.7 0.00 0.00 0.00 64 1019.0
20260830161731 30 360 4.8 24.1 0.00 0.00 0.00 64 1018.9
20260830161617 30 360 8.0 24.1 0.00 0.00 0.00 64 1018.9
20260830161537 30 360 8.0 24.1 0.00 0.00 0.00 64 1019.0
20260830161416 31 360 8.0 24.1 0.00 0.00 0.00 65 1019.0
20260830161317 31 360 6.4 24.1 0.00 0.00 0.00 66 1018.9
20260830161218 30 360 6.4 22.5 0.00 0.00 0.00 66 1018.9
20260830161118 30 360 9.7 22.5 0.00 0.00 0.00 67 1019.0
20260830161018 30 360 9.7 22.5 0.00 0.00 0.00 66 1018.9
20260830160918 30 360 8.0 22.5 0.00 0.00 0.00 67 1019.0
20260830160822 30 360 8.0 22.5 0.00 0.00 0.00 67 1019.0
20260830160722 30 360 11.3 22.5 0.00 0.00 0.00 66 1019.0
20260830160623 30 360 12.9 22.5 0.00 0.00 0.00 64 1019.0
20260830160524 30 360 14.5 22.5 0.00 0.00 0.00 64 1019.1
20260830160424 30 360 11.3 22.5 0.00 0.00 0.00 64 1019.0
20260830160326 31 360 8.0 19.3 0.00 0.00 0.00 65 1019.0
20260830160230 31 360 6.4 19.3 0.00 0.00 0.00 66 1019.0
20260830160131 30 360 9.7 19.3 0.00 0.00 0.00 66 1019.0
20260830160031 31 360 9.7 19.3 0.00 0.00 0.00 65 1018.9
20260830155952 31 360 11.3 19.3 0.00 0.00 0.00 65 1018.9
20260830155832 31 360 9.7 19.3 0.00 0.00 0.00 64 1018.9
20260830155730 31 360 8.0 19.3 0.00 0.00 0.00 64 1018.8
20260830155632 31 360 4.8 17.7 0.00 0.00 0.00 66 1018.8
20260830155553 31 360 4.8 17.7 0.00 0.00 0.00 66 1018.8
20260830155456 31 360 3.2 17.7 0.00 0.00 0.00 66 1018.8
20260830155356 31 360 6.4 17.7 0.00 0.00 0.00 67 1018.8
20260830155255 31 360 6.4 17.7 0.00 0.00 0.00 67 1018.9
20260830155134 31 360 9.7 17.7 0.00 0.00 0.00 66 1018.8
20260830155034 31 360 6.4 17.7 0.00 0.00 0.00 66 1018.8
20260830154935 31 360 6.4 17.7 0.00 0.00 0.00 66 1018.8
20260830154816 31 360 6.4 14.5 0.00 0.00 0.00 66 1018.7
20260830154735 31 360 6.4 14.5 0.00 0.00 0.00 67 1018.8
20260830154620 31 360 4.8 14.5 0.00 0.00 0.00 67 1018.7
20260830154520 30 360 4.8 16.1 0.00 0.00 0.00 68 1018.7
20260830154421 30 360 4.8 16.1 0.00 0.00 0.00 68 1018.7
20260830154322 30 360 4.8 16.1 0.00 0.00 0.00 67 1018.7
20260830154243 30 360 4.8 16.1 0.00 0.00 0.00 67 1018.7
20260830154141 30 360 6.4 16.1 0.00 0.00 0.00 69 1018.8
20260830154021 30 360 8.0 16.1 0.00 0.00 0.00 69 1018.7
20260830153926 30 360 9.7 16.1 0.00 0.00 0.00 70 1018.8
20260830153846 30 360 9.7 16.1 0.00 0.00 0.00 70 1018.8
20260830153726 30 360 6.4 16.1 0.00 0.00 0.00 71 1018.8
20260830153626 30 360 6.4 16.1 0.00 0.00 0.00 71 1018.8
20260830153526 30 360 4.8 16.1 0.00 0.00 0.00 71 1018.8
20260830153427 29 360 6.4 20.9 0.00 0.00 0.00 71 1018.8
20260830153327 29 360 6.4 20.9 0.00 0.00 0.00 72 1018.8
20260830153232 29 360 8.0 20.9 0.00 0.00 0.00 71 1018.8
20260830153133 29 360 9.7 20.9 0.00 0.00 0.00 70 1018.8
20260830153032 29 360 9.7 20.9 0.00 0.00 0.00 70 1018.8
20260830152953 29 360 11.3 20.9 0.00 0.00 0.00 70 1018.8
20260830152833 29 360 9.7 20.9 0.00 0.00 0.00 71 1018.8
20260830152732 29 360 8.0 20.9 0.00 0.00 0.00 71 1018.7
20260830152651 29 360 8.0 20.9 0.00 0.00 0.00 70 1018.7
20260830152530 29 360 6.4 20.9 0.00 0.00 0.00 72 1018.8
20260830152434 29 360 6.4 20.9 0.00 0.00 0.00 71 1018.7
20260830152354 28 360 8.0 20.9 0.00 0.00 0.00 71 1018.8
20260830152233 28 360 8.0 20.9 0.00 0.00 0.00 72 1018.8
20260830152134 28 360 6.4 20.9 0.00 0.00 0.00 73 1018.7
20260830152032 28 360 8.0 20.9 0.00 0.00 0.00 73 1018.7
20260830151932 28 360 8.0 20.9 0.00 0.00 0.00 73 1018.7
20260830151832 28 360 8.0 20.9 0.00 0.00 0.00 73 1018.6
20260830151753 28 360 9.7 19.3 0.00 0.00 0.00 74 1018.6
20260830151631 28 360 8.0 19.3 0.00 0.00 0.00 74 1018.7
20260830151516 28 360 9.7 19.3 0.00 0.00 0.00 74 1018.6
20260830151416 28 360 8.0 19.3 0.00 0.00 0.00 74 1018.7
20260830151317 28 360 9.7 19.3 0.00 0.00 0.00 74 1018.6
20260830151217 28 360 8.0 19.3 0.00 0.00 0.00 75 1018.6
20260830151137 28 360 8.0 19.3 0.00 0.00 0.00 75 1018.7
20260830151017 28 360 8.0 19.3 0.00 0.00 0.00 74 1018.7
20260830150922 28 360 6.4 17.7 0.00 0.00 0.00 74 1018.7
20260830150822 28 360 8.0 17.7 0.00 0.00 0.00 74 1018.7
20260830150723 28 360 8.0 17.7 0.00 0.00 0.00 74 1018.7
20260830150644 28 360 8.0 20.9 0.00 0.00 0.00 73 1018.7
20260830150523 28 360 6.4 20.9 0.00 0.00 0.00 74 1018.7
20260830150424 28 360 6.4 20.9 0.00 0.00 0.00 75 1018.6
20260830150325 28 360 4.8 20.9 0.00 0.00 0.00 75 1018.6
20260830150230 28 360 6.4 20.9 0.00 0.00 0.00 75 1018.7
20260830150131 28 360 8.0 20.9 0.00 0.00 0.00 76 1018.6
20260830150052 28 360 8.0 22.5 0.00 0.00 0.00 75 1018.6
20260830145931 28 360 8.0 22.5 0.00 0.00 0.00 76 1018.6
20260830145853 28 360 4.8 22.5 0.00 0.00 0.00 76 1018.6
20260830145730 28 360 6.4 22.5 0.00 0.00 0.00 76 1018.7
20260830145630 28 360 6.4 22.5 0.00 0.00 0.00 75 1018.6
20260830145531 28 360 6.4 22.5 0.00 0.00 0.00 75 1018.6
20260830145451 28 360 9.7 22.5 0.00 0.00 0.00 76 1018.8
20260830145335 28 360 8.0 22.5 0.00 0.00 0.00 76 1018.7
20260830145235 28 360 9.7 22.5 0.00 0.00 0.00 76 1018.7
20260830145135 28 360 8.0 17.7 0.00 0.00 0.00 76 1018.7
20260830145056 28 360 8.0 17.7 0.00 0.00 0.00 76 1018.6
20260830144935 28 360 6.4 17.7 0.00 0.00 0.00 76 1018.7
20260830144816 28 360 8.0 17.7 0.00 0.00 0.00 77 1018.6
20260830144720 28 360 8.0 20.9 0.00 0.00 0.00 77 1018.6
20260830144620 28 360 9.7 20.9 0.00 0.00 0.00 78 1018.6
20260830144521 28 360 9.7 20.9 0.00 0.00 0.00 77 1018.6
20260830144441 28 360 8.0 20.9 0.00 0.00 0.00 77 1018.6
20260830144321 27 360 8.0 20.9 0.00 0.00 0.00 77 1018.5
20260830144222 27 360 9.7 20.9 0.00 0.00 0.00 77 1018.6
20260830144122 27 360 9.7 20.9 0.00 0.00 0.00 77 1018.6
20260830144026 27 360 9.7 20.9 0.00 0.00 0.00 77 1018.6
20260830143927 27 360 11.3 20.9 0.00 0.00 0.00 77 1018.6
20260830143828 28 360 9.7 20.9 0.00 0.00 0.00 77 1018.6
20260830143730 28 360 9.7 20.9 0.00 0.00 0.00 77 1018.7
20260830143630 28 360 6.4 17.7 0.00 0.00 0.00 77 1018.6
20260830143530 28 360 4.8 17.7 0.00 0.00 0.00 78 1018.7
20260830143430 28 360 4.8 17.7 0.00 0.00 0.00 77 1018.6
20260830143335 28 360 4.8 17.7 0.00 0.00 0.00 77 1018.7
20260830143235 28 360 4.8 17.7 0.00 0.00 0.00 78 1018.7
20260830143156 28 360 4.8 17.7 0.00 0.00 0.00 78 1018.7
20260830143056 27 360 6.4 17.7 0.00 0.00 0.00 79 1018.7
20260830142955 27 360 4.8 17.7 0.00 0.00 0.00 79 1018.8
20260830142836 27 360 4.8 12.9 0.00 0.00 0.00 79 1018.7
20260830142717 27 360 3.2 12.9 0.00 0.00 0.00 80 1018.7
20260830142618 27 360 3.2 12.9 0.00 0.00 0.00 80 1018.8
20260830142542 27 360 4.8 12.9 0.00 0.00 0.00 80 1018.8
20260830142422 27 360 6.4 12.9 0.00 0.00 0.00 80 1018.9
20260830142323 27 360 6.4 14.5 0.00 0.00 0.00 80 1018.7
20260830142223 27 360 4.8 17.7 0.00 0.00 0.00 80 1018.9
20260830142124 27 360 3.2 17.7 0.00 0.00 0.00 80 1018.8
20260830142024 27 360 4.8 17.7 0.00 0.00 0.00 81 1018.8
20260830141924 27 360 4.8 17.7 0.00 0.00 0.00 81 1018.8
20260830141829 27 360 6.4 17.7 0.00 0.00 0.00 81 1018.8
20260830141730 27 360 9.7 17.7 0.00 0.00 0.00 81 1018.7
20260830141630 27 360 8.0 17.7 0.00 0.00 0.00 81 1018.7
20260830141530 27 360 9.7 17.7 0.00 0.00 0.00 80 1018.7
20260830141431 27 360 9.7 17.7 0.00 0.00 0.00 80 1018.7
20260830141353 27 360 6.4 17.7 0.00 0.00 0.00 80 1018.7
20260830141215 27 184 4.8 17.7 0.00 0.00 0.00 82 1018.6
20260830141116 27 360 3.2 17.7 0.00 0.00 0.00 82 1018.6
20260830141017 27 360 4.8 17.7 0.00 0.00 0.00 82 1018.6
20260830140917 26 360 8.0 20.9 0.00 0.00 0.00 82 1018.6
20260830140818 26 360 9.7 20.9 0.00 0.00 0.00 82 1018.7
20260830140720 26 360 8.0 20.9 0.00 0.00 0.00 82 1018.6
20260830140620 26 360 6.4 20.9 0.00 0.00 0.00 82 1018.6
20260830140524 26 360 6.4 20.9 0.00 0.00 0.00 82 1018.7
20260830140445 26 360 6.4 20.9 0.00 0.00 0.00 83 1018.6
20260830140325 26 360 8.0 20.9 0.00 0.00 0.00 83 1018.6
20260830140226 26 360 8.0 20.9 0.00 0.00 0.00 82 1018.6
20260830140127 26 360 9.7 20.9 0.00 0.00 0.00 82 1018.5
20260830140026 26 360 8.0 17.7 0.00 0.00 0.00 82 1018.4
20260830135927 26 360 8.0 17.7 0.00 0.00 0.00 82 1018.5
20260830135853 26 360 8.0 17.7 0.00 0.00 0.00 82 1018.4
20260830135730 26 360 6.4 17.7 0.00 0.00 0.00 82 1018.4
20260830135630 26 360 6.4 17.7 0.00 0.00 0.00 82 1018.4
20260830135530 26 360 6.4 12.9 0.00 0.00 0.00 83 1018.4
20260830135431 26 360 4.8 16.1 0.00 0.00 0.00 83 1018.4
20260830135352 26 360 4.8 16.1 0.00 0.00 0.00 83 1018.5
20260830135232 26 360 6.4 16.1 0.00 0.00 0.00 83 1018.4
20260830135116 26 360 6.4 16.1 0.00 0.00 0.00 83 1018.4
20260830135016 26 360 6.4 17.7 0.00 0.00 0.00 83 1018.4
20260830134917 26 360 4.8 17.7 0.00 0.00 0.00 83 1018.4
20260830134818 26 360 3.2 17.7 0.00 0.00 0.00 83 1018.3
20260830134718 26 360 3.2 17.7 0.00 0.00 0.00 83 1018.3
20260830134619 26 360 4.8 17.7 0.00 0.00 0.00 84 1018.4
20260830134524 26 360 6.4 17.7 0.00 0.00 0.00 83 1018.4
20260830134425 26 360 6.4 17.7 0.00 0.00 0.00 83 1018.4
20260830134325 26 360 6.4 17.7 0.00 0.00 0.00 83 1018.4
20260830134227 26 360 6.4 17.7 0.00 0.00 0.00 84 1018.3
20260830134128 26 360 4.8 12.9 0.00 0.00 0.00 84 1018.4
20260830134028 26 360 4.8 12.9 0.00 0.00 0.00 84 1018.4
20260830133926 26 360 3.2 8.0 0.00 0.00 0.00 84 1018.3
20260830133851 26 360 3.2 8.0 0.00 0.00 0.00 84 1018.4
20260830133731 26 360 4.8 8.0 0.00 0.00 0.00 84 1018.4
20260830133631 26 360 4.8 8.0 0.00 0.00 0.00 84 1018.3
20260830133532 26 360 3.2 8.0 0.00 0.00 0.00 84 1018.3
20260830133432 26 360 3.2 8.0 0.00 0.00 0.00 84 1018.3
20260830133333 26 360 3.2 8.0 0.00 0.00 0.00 85 1018.3
20260830133218 26 360 3.2 8.0 0.00 0.00 0.00 85 1018.3
20260830133138 26 360 4.8 8.0 0.00 0.00 0.00 85 1018.2
20260830133038 25 360 3.2 8.0 0.00 0.00 0.00 85 1018.2
20260830132917 25 360 4.8 8.0 0.00 0.00 0.00 85 1018.3
20260830132818 25 360 3.2 8.0 0.00 0.00 0.00 85 1018.2
20260830132717 25 360 3.2 8.0 0.00 0.00 0.00 85 1018.3
20260830132619 25 360 3.2 8.0 0.00 0.00 0.00 85 1018.2
20260830132518 25 360 1.6 6.4 0.00 0.00 0.00 86 1018.2
20260830132443 25 360 1.6 6.4 0.00 0.00 0.00 86 1018.2
20260830132321 25 360 0.0 6.4 0.00 0.00 0.00 86 1018.2
20260830132222 25 360 1.6 6.4 0.00 0.00 0.00 86 1018.2
20260830132123 25 360 1.6 6.4 0.00 0.00 0.00 86 1018.1
20260830132044 25 360 1.6 6.4 0.00 0.00 0.00 86 1018.1
20260830131923 25 360 3.2 6.4 0.00 0.00 0.00 86 1018.1
20260830131823 25 360 3.2 6.4 0.00 0.00 0.00 86 1018.1
20260830131722 25 360 1.6 4.8 0.00 0.00 0.00 86 1018.1
20260830131627 25 360 1.6 4.8 0.00 0.00 0.00 87 1018.1
20260830131527 25 360 1.6 4.8 0.00 0.00 0.00 87 1018.0
20260830131427 25 360 0.0 4.8 0.00 0.00 0.00 87 1018.0
20260830131348 25 360 0.0 4.8 0.00 0.00 0.00 88 1018.1
20260830131228 25 360 0.0 4.8 0.00 0.00 0.00 88 1018.1
20260830131128 25 360 1.6 4.8 0.00 0.00 0.00 88 1018.1
20260830131029 25 360 1.6 4.8 0.00 0.00 0.00 88 1018.1
20260830130933 24 360 1.6 4.8 0.00 0.00 0.00 88 1018.1
20260830130833 24 360 1.6 4.8 0.00 0.00 0.00 88 1018.0
20260830130734 24 360 1.6 3.2 0.00 0.00 0.00 88 1018.1
20260830130654 24 360 1.6 3.2 0.00 0.00 0.00 88 1018.1
20260830130533 24 360 1.6 3.2 0.00 0.00 0.00 88 1018.1
20260830130433 24 360 1.6 8.0 0.00 0.00 0.00 89 1018.1
20260830130317 24 360 0.0 8.0 0.00 0.00 0.00 89 1018.1
20260830130217 24 360 1.6 8.0 0.00 0.00 0.00 89 1018.0
20260830130118 24 360 1.6 8.0 0.00 0.00 0.00 89 1018.1
20260830130019 24 360 1.6 8.0 0.00 0.00 0.00 89 1018.0
20260830125940 23 360 1.6 8.0 0.00 0.00 0.00 89 1018.0
20260830125819 23 360 1.6 6.4 0.00 0.00 0.00 89 1018.0
20260830125718 23 196 1.6 6.4 0.00 0.00 0.00 89 1018.1
20260830125619 23 360 1.6 6.4 0.00 0.00 0.00 89 1018.0
20260830125524 23 360 1.6 3.2 0.00 0.00 0.00 89 1018.0
20260830125445 23 360 1.6 4.8 0.00 0.00 0.00 89 1018.0
20260830125344 23 360 1.6 4.8 0.00 0.00 0.00 89 1018.0
20260830125225 23 360 1.6 4.8 0.00 0.00 0.00 89 1018.0
20260830125126 23 360 1.6 4.8 0.00 0.00 0.00 89 1018.0
20260830125027 23 360 1.6 4.8 0.00 0.00 0.00 89 1018.0
20260830124928 23 360 1.6 4.8 0.00 0.00 0.00 89 1018.0
20260830124847 23 360 1.6 4.8 0.00 0.00 0.00 89 1018.0
20260830124731 23 360 3.2 4.8 0.00 0.00 0.00 89 1018.0
20260830124632 23 360 3.2 4.8 0.00 0.00 0.00 89 1018.0
20260830124532 23 360 1.6 4.8 0.00 0.00 0.00 89 1018.0
20260830124435 23 360 1.6 4.8 0.00 0.00 0.00 89 1018.0
20260830124335 23 360 1.6 4.8 0.00 0.00 0.00 89 1017.9
20260830124216 23 360 1.6 4.8 0.00 0.00 0.00 89 1018.0
20260830124121 23 360 3.2 4.8 0.00 0.00 0.00 89 1018.0
20260830124022 23 360 3.2 4.8 0.00 0.00 0.00 89 1018.0
20260830123922 23 360 1.6 4.8 0.00 0.00 0.00 89 1018.1
20260830123822 23 360 1.6 4.8 0.00 0.00 0.00 89 1018.0
20260830123743 23 360 1.6 4.8 0.00 0.00 0.00 89 1018.0
20260830123623 23 360 0.0 6.4 0.00 0.00 0.00 89 1018.0
20260830123525 23 360 0.0 6.4 0.00 0.00 0.00 89 1018.0
20260830123430 23 360 1.6 6.4 0.00 0.00 0.00 89 1018.0
20260830123330 23 360 1.6 6.4 0.00 0.00 0.00 89 1018.0
20260830123231 23 360 3.2 6.4 0.00 0.00 0.00 89 1018.0
20260830123131 23 360 3.2 6.4 0.00 0.00 0.00 89 1018.0
20260830123031 23 360 3.2 6.4 0.00 0.00 0.00 89 1017.9
20260830122931 23 360 3.2 6.4 0.00 0.00 0.00 89 1018.0
20260830122817 23 360 3.2 6.4 0.00 0.00 0.00 89 1017.9
20260830122737 23 360 3.2 6.4 0.00 0.00 0.00 89 1017.8
20260830122617 23 360 3.2 6.4 0.00 0.00 0.00 88 1017.9
20260830122538 23 360 3.2 6.4 0.00 0.00 0.00 88 1017.9
20260830122416 23 360 3.2 6.4 0.00 0.00 0.00 88 1017.9
20260830122318 23 360 4.8 6.4 0.00 0.00 0.00 88 1017.9
20260830122216 23 360 4.8 6.4 0.00 0.00 0.00 88 1017.9
20260830122137 23 360 4.8 6.4 0.00 0.00 0.00 88 1017.7
20260830122021 23 360 3.2 6.4 0.00 0.00 0.00 88 1017.7
20260830121920 23 360 3.2 6.4 0.00 0.00 0.00 88 1017.7
20260830121821 23 360 3.2 4.8 0.00 0.00 0.00 88 1017.7
20260830121721 23 360 1.6 4.8 0.00 0.00 0.00 88 1017.6
20260830121621 23 360 3.2 4.8 0.00 0.00 0.00 88 1017.6
20260830121523 23 360 3.2 4.8 0.00 0.00 0.00 88 1017.6
20260830121423 23 360 3.2 8.0 0.00 0.00 0.00 88 1017.6
20260830121348 23 360 1.6 8.0 0.00 0.00 0.00 88 1017.6
20260830121247 23 360 1.6 8.0 0.00 0.00 0.00 88 1017.6
20260830121127 23 360 1.6 8.0 0.00 0.00 0.00 88 1017.6
20260830121028 23 360 1.6 8.0 0.00 0.00 0.00 89 1017.5
20260830120948 23 360 1.6 8.0 0.00 0.00 0.00 89 1017.5
20260830120827 23 360 1.6 8.0 0.00 0.00 0.00 89 1017.5
20260830120748 23 360 3.2 8.0 0.00 0.00 0.00 88 1017.5
20260830120627 23 360 3.2 8.0 0.00 0.00 0.00 88 1017.5
20260830120548 23 360 3.2 8.0 0.00 0.00 0.00 88 1017.5
20260830120433 23 360 3.2 4.8 0.00 0.00 0.00 88 1017.5
20260830120334 23 360 1.6 4.8 0.00 0.00 0.00 88 1017.5
20260830120235 23 360 1.6 4.8 0.00 0.00 0.00 88 1017.5
20260830120135 23 360 1.6 4.8 0.00 0.00 0.00 88 1017.5
20260830120035 23 360 1.6 4.8 0.00 0.00 0.00 88 1017.5
20260830115935 23 360 3.2 6.4 0.00 0.00 0.00 88 1017.4
20260830115821 23 360 3.2 6.4 0.00 0.00 0.00 88 1017.5
20260830115721 23 360 3.2 6.4 0.00 0.00 0.00 88 1017.5
20260830115622 23 360 3.2 6.4 0.00 0.00 0.00 88 1017.5
20260830115521 23 360 3.2 6.4 0.00 0.00 0.00 88 1017.5
20260830115420 23 360 3.2 6.4 0.00 0.00 0.00 88 1017.5
20260830115321 23 360 3.2 6.4 0.00 0.00 0.00 88 1017.5
20260830115222 23 360 3.2 6.4 0.00 0.00 0.00 88 1017.5
20260830115126 23 360 3.2 6.4 0.00 0.00 0.00 88 1017.4
20260830115027 23 360 3.2 4.8 0.00 0.00 0.00 88 1017.5
20260830114926 23 360 3.2 6.4 0.00 0.00 0.00 87 1017.5
20260830114827 23 360 3.2 6.4 0.00 0.00 0.00 88 1017.5
20260830114727 23 360 3.2 6.4 0.00 0.00 0.00 87 1017.6
20260830114627 23 360 1.6 6.4 0.00 0.00 0.00 87 1017.5
20260830114528 23 360 3.2 6.4 0.00 0.00 0.00 87 1017.5
20260830114432 23 360 3.2 6.4 0.00 0.00 0.00 87 1017.5
20260830114332 23 360 3.2 6.4 0.00 0.00 0.00 87 1017.5
20260830114231 23 360 3.2 6.4 0.00 0.00 0.00 87 1017.5
20260830114132 23 360 3.2 6.4 0.00 0.00 0.00 87 1017.5
20260830114053 23 360 3.2 6.4 0.00 0.00 0.00 87 1017.5
20260830113932 23 360 1.6 6.4 0.00 0.00 0.00 87 1017.5
20260830113853 23 360 1.6 6.4 0.00 0.00 0.00 87 1017.5
20260830113717 23 360 1.6 9.7 0.00 0.00 0.00 87 1017.5
20260830113638 23 360 1.6 9.7 0.00 0.00 0.00 87 1017.5
20260830113517 23 360 1.6 9.7 0.00 0.00 0.00 87 1017.4
20260830113418 23 360 1.6 9.7 0.00 0.00 0.00 87 1017.4
20260830113320 23 360 1.6 9.7 0.00 0.00 0.00 87 1017.4
20260830113220 23 360 3.2 9.7 0.00 0.00 0.00 87 1017.4
20260830113120 23 360 3.2 9.7 0.00 0.00 0.00 87 1017.4
20260830113026 23 360 3.2 9.7 0.00 0.00 0.00 87 1017.5
20260830112927 23 360 4.8 9.7 0.00 0.00 0.00 87 1017.5
20260830112828 23 360 4.8 9.7 0.00 0.00 0.00 87 1017.4
20260830112727 23 360 4.8 9.7 0.00 0.00 0.00 87 1017.4
20260830112627 23 360 4.8 8.0 0.00 0.00 0.00 87 1017.4
20260830112548 23 360 3.2 8.0 0.00 0.00 0.00 87 1017.3
20260830112428 23 360 3.2 8.0 0.00 0.00 0.00 87 1017.3
20260830112329 23 360 1.6 8.0 0.00 0.00 0.00 87 1017.3
20260830112232 23 360 1.6 8.0 0.00 0.00 0.00 87 1017.4
20260830112132 23 360 1.6 8.0 0.00 0.00 0.00 87 1017.3
20260830112052 23 360 3.2 8.0 0.00 0.00 0.00 86 1017.3
20260830111932 23 360 4.8 8.0 0.00 0.00 0.00 86 1017.3
20260830111833 23 360 3.2 8.0 0.00 0.00 0.00 86 1017.3
20260830111731 23 360 3.2 6.4 0.00 0.00 0.00 86 1017.3
20260830111632 23 360 1.6 6.4 0.00 0.00 0.00 86 1017.3
20260830111516 23 360 3.2 6.4 0.00 0.00 0.00 86 1017.3
20260830111437 23 360 3.2 6.4 0.00 0.00 0.00 86 1017.3
20260830111317 23 360 3.2 6.4 0.00 0.00 0.00 86 1017.2
20260830111217 23 360 3.2 6.4 0.00 0.00 0.00 86 1017.3
20260830111138 23 360 3.2 6.4 0.00 0.00 0.00 86 1017.3
20260830111018 23 360 3.2 6.4 0.00 0.00 0.00 86 1017.3
20260830110918 23 360 3.2 6.4 0.00 0.00 0.00 86 1017.3
20260830110817 23 360 3.2 6.4 0.00 0.00 0.00 86 1017.3
20260830110721 23 360 1.6 6.4 0.00 0.00 0.00 86 1017.3
20260830110642 23 360 1.6 6.4 0.00 0.00 0.00 86 1017.3
20260830110516 23 360 1.6 4.8 0.00 0.00 0.00 86 1017.3
20260830110416 23 360 1.6 4.8 0.00 0.00 0.00 86 1017.3
20260830110316 24 360 1.6 4.8 0.00 0.00 0.00 86 1017.3
20260830110217 24 360 1.6 4.8 0.00 0.00 0.00 86 1017.2
20260830110118 24 360 1.6 8.0 0.00 0.00 0.00 86 1017.2
20260830110022 24 360 0.0 8.0 0.00 0.00 0.00 86 1017.3
20260830105923 24 360 1.6 8.0 0.00 0.00 0.00 86 1017.2
20260830105826 24 360 1.6 8.0 0.00 0.00 0.00 86 1017.2
20260830105726 24 360 3.2 8.0 0.00 0.00 0.00 86 1017.1
20260830105626 24 360 3.2 8.0 0.00 0.00 0.00 86 1017.2
20260830105526 24 360 3.2 8.0 0.00 0.00 0.00 86 1017.2
20260830105431 24 360 3.2 9.7 0.00 0.00 0.00 86 1017.2
20260830105331 23 360 4.8 9.7 0.00 0.00 0.00 86 1017.2
20260830105232 24 360 3.2 9.7 0.00 0.00 0.00 86 1017.2
20260830105133 24 360 3.2 9.7 0.00 0.00 0.00 85 1017.1
20260830105034 24 360 3.2 12.9 0.00 0.00 0.00 85 1017.1
20260830104933 24 360 3.2 12.9 0.00 0.00 0.00 85 1017.0
20260830104854 24 360 3.2 12.9 0.00 0.00 0.00 85 1017.1
20260830104716 24 360 4.8 12.9 0.00 0.00 0.00 85 1017.0
20260830104635 24 360 4.8 12.9 0.00 0.00 0.00 85 1017.1
20260830104517 24 360 3.2 12.9 0.00 0.00 0.00 85 1017.1
20260830104417 24 360 3.2 12.9 0.00 0.00 0.00 85 1017.0
20260830104317 24 200 4.8 12.9 0.00 0.00 0.00 85 1017.1
20260830104218 24 360 4.8 12.9 0.00 0.00 0.00 85 1017.2
20260830104119 24 360 4.8 12.9 0.00 0.00 0.00 85 1017.1
20260830104024 24 360 3.2 9.7 0.00 0.00 0.00 85 1017.2
20260830103925 24 360 3.2 8.0 0.00 0.00 0.00 85 1017.1
20260830103826 24 225 1.6 8.0 0.00 0.00 0.00 85 1017.2
20260830103747 24 225 3.2 8.0 0.00 0.00 0.00 85 1017.1
20260830103626 24 360 3.2 8.0 0.00 0.00 0.00 85 1017.1
20260830103526 24 360 3.2 8.0 0.00 0.00 0.00 85 1017.1
20260830103427 24 360 1.6 8.0 0.00 0.00 0.00 85 1017.0
20260830103332 24 360 1.6 12.9 0.00 0.00 0.00 85 1017.0
20260830103232 24 360 1.6 12.9 0.00 0.00 0.00 85 1017.0
20260830103132 24 360 1.6 12.9 0.00 0.00 0.00 85 1017.0
20260830103031 24 360 3.2 12.9 0.00 0.00 0.00 85 1017.0
20260830102932 24 360 3.2 12.9 0.00 0.00 0.00 84 1017.1
20260830102835 24 360 4.8 12.9 0.00 0.00 0.00 84 1017.0
20260830102718 24 360 4.8 12.9 0.00 0.00 0.00 84 1017.0
20260830102639 24 360 3.2 12.9 0.00 0.00 0.00 84 1017.0
20260830102518 24 360 3.2 12.9 0.00 0.00 0.00 84 1017.0
20260830102439 24 360 3.2 12.9 0.00 0.00 0.00 84 1017.0
20260830102318 24 360 3.2 12.9 0.00 0.00 0.00 84 1017.1
20260830102220 24 360 3.2 12.9 0.00 0.00 0.00 84 1017.0
20260830102120 24 360 3.2 12.9 0.00 0.00 0.00 84 1017.0
20260830102041 24 360 3.2 12.9 0.00 0.00 0.00 84 1016.9
20260830101924 24 360 3.2 12.9 0.00 0.00 0.00 84 1017.0
20260830101825 24 360 3.2 12.9 0.00 0.00 0.00 84 1017.0
20260830101726 24 360 3.2 12.9 0.00 0.00 0.00 84 1017.0
20260830101626 24 360 3.2 8.0 0.00 0.00 0.00 84 1017.1
20260830101547 24 360 4.8 12.9 0.00 0.00 0.00 84 1017.0
20260830101427 24 360 4.8 12.9 0.00 0.00 0.00 84 1017.0
20260830101327 24 360 3.2 12.9 0.00 0.00 0.00 84 1017.0
20260830101231 24 360 1.6 12.9 0.00 0.00 0.00 84 1017.0
20260830101152 24 360 1.6 12.9 0.00 0.00 0.00 84 1017.0
20260830101031 24 360 1.6 12.9 0.00 0.00 0.00 84 1017.0
20260830100952 24 360 3.2 12.9 0.00 0.00 0.00 84 1016.9
20260830100831 24 360 4.8 12.9 0.00 0.00 0.00 84 1016.9
20260830100733 24 360 4.8 12.9 0.00 0.00 0.00 84 1016.9
20260830100654 24 360 4.8 12.9 0.00 0.00 0.00 84 1016.9
20260830100532 24 360 3.2 12.9 0.00 0.00 0.00 83 1016.9
20260830100417 24 360 4.8 12.9 0.00 0.00 0.00 83 1016.9
20260830100338 24 360 4.8 12.9 0.00 0.00 0.00 83 1016.9
20260830100237 24 360 3.2 12.9 0.00 0.00 0.00 83 1017.0
20260830100116 24 360 3.2 9.7 0.00 0.00 0.00 83 1017.0
20260830100016 24 360 3.2 9.7 0.00 0.00 0.00 83 1017.0
20260830095917 24 360 3.2 9.7 0.00 0.00 0.00 83 1017.0
20260830095818 24 360 3.2 9.7 0.00 0.00 0.00 83 1017.0
20260830095718 24 360 3.2 9.7 0.00 0.00 0.00 83 1017.1
20260830095642 24 360 3.2 9.7 0.00 0.00 0.00 83 1017.1
20260830095522 24 360 3.2 9.7 0.00 0.00 0.00 83 1017.1
20260830095423 24 360 1.6 8.0 0.00 0.00 0.00 83 1017.0
20260830095323 24 360 1.6 8.0 0.00 0.00 0.00 83 1017.1
20260830095223 24 360 3.2 8.0 0.00 0.00 0.00 83 1017.1
20260830095124 24 360 3.2 9.7 0.00 0.00 0.00 83 1017.0
20260830095024 24 360 3.2 14.5 0.00 0.00 0.00 83 1017.1
20260830094929 24 360 3.2 14.5 0.00 0.00 0.00 83 1017.0
20260830094831 24 360 3.2 14.5 0.00 0.00 0.00 83 1017.0
20260830094730 25 360 3.2 14.5 0.00 0.00 0.00 83 1017.1
20260830094631 25 360 3.2 14.5 0.00 0.00 0.00 82 1017.0
20260830094531 24 360 3.2 14.5 0.00 0.00 0.00 82 1017.0
20260830094452 24 360 3.2 14.5 0.00 0.00 0.00 82 1017.0
20260830094331 24 360 6.4 14.5 0.00 0.00 0.00 82 1017.0
20260830094235 24 360 6.4 14.5 0.00 0.00 0.00 82 1017.0
20260830094117 24 360 3.2 14.5 0.00 0.00 0.00 82 1017.0
20260830094017 24 360 1.6 12.9 0.00 0.00 0.00 82 1017.0
20260830093917 24 360 3.2 12.9 0.00 0.00 0.00 82 1017.0
20260830093817 24 360 3.2 12.9 0.00 0.00 0.00 82 1017.0
20260830093718 25 360 3.2 12.9 0.00 0.00 0.00 82 1017.0
20260830093622 25 360 3.2 12.9 0.00 0.00 0.00 82 1017.0
20260830093523 25 360 4.8 12.9 0.00 0.00 0.00 82 1017.0
20260830093425 25 360 3.2 9.7 0.00 0.00 0.00 81 1017.0
20260830093325 25 360 3.2 9.7 0.00 0.00 0.00 81 1017.0
20260830093226 25 360 3.2 9.7 0.00 0.00 0.00 81 1016.9
20260830093147 25 360 4.8 9.7 0.00 0.00 0.00 81 1017.0
20260830093027 25 360 4.8 9.7 0.00 0.00 0.00 81 1017.0
20260830092931 25 360 4.8 9.7 0.00 0.00 0.00 81 1017.0
20260830092833 25 360 4.8 9.7 0.00 0.00 0.00 81 1017.0
20260830092732 25 360 3.2 8.0 0.00 0.00 0.00 81 1016.9
20260830092632 25 360 3.2 8.0 0.00 0.00 0.00 81 1017.0
20260830092533 25 159 3.2 9.7 0.00 0.00 0.00 81 1017.0
20260830092434 25 159 3.2 9.7 0.00 0.00 0.00 81 1017.0
20260830092318 25 360 4.8 8.0 0.00 0.00 0.00 81 1017.0
20260830092218 25 360 4.8 8.0 0.00 0.00 0.00 81 1016.9
20260830092119 25 360 3.2 8.0 0.00 0.00 0.00 81 1016.9
20260830092020 25 360 3.2 17.7 0.00 0.00 0.00 81 1016.9
20260830091921 25 360 3.2 17.7 0.00 0.00 0.00 81 1017.0
20260830091823 25 360 3.2 17.7 0.00 0.00 0.00 81 1016.9
20260830091722 25 360 3.2 17.7 0.00 0.00 0.00 81 1016.9
20260830091627 25 360 4.8 17.7 0.00 0.00 0.00 81 1017.0
20260830091528 25 360 4.8 17.7 0.00 0.00 0.00 81 1016.9
20260830091428 25 360 6.4 17.7 0.00 0.00 0.00 81 1016.9
20260830091349 25 360 6.4 17.7 0.00 0.00 0.00 81 1017.0
20260830091227 25 360 6.4 17.7 0.00 0.00 0.00 81 1016.9
20260830091128 25 360 4.8 17.7 0.00 0.00 0.00 80 1016.9
20260830091049 25 360 4.8 12.9 0.00 0.00 0.00 80 1016.9
20260830090929 25 360 4.8 9.7 0.00 0.00 0.00 80 1016.8
20260830090833 25 360 3.2 9.7 0.00 0.00 0.00 80 1016.9
20260830090734 25 360 3.2 9.7 0.00 0.00 0.00 80 1017.0
20260830090635 25 360 3.2 9.7 0.00 0.00 0.00 80 1017.0
20260830090556 25 360 4.8 9.7 0.00 0.00 0.00 80 1017.0
20260830090436 25 360 4.8 14.5 0.00 0.00 0.00 80 1016.9
20260830090357 25 360 4.8 14.5 0.00 0.00 0.00 80 1017.0
20260830090235 25 360 3.2 14.5 0.00 0.00 0.00 80 1017.0
20260830090121 25 360 3.2 14.5 0.00 0.00 0.00 80 1017.0
20260830090042 25 360 3.2 14.5 0.00 0.00 0.00 80 1017.0
20260830085916 25 360 4.8 14.5 0.00 0.00 0.00 80 1017.0
20260830085818 25 360 6.4 14.5 0.00 0.00 0.00 80 1017.0
20260830085718 25 360 8.0 14.5 0.00 0.00 0.00 80 1017.1
20260830085618 25 360 8.0 14.5 0.00 0.00 0.00 80 1017.0
20260830085539 25 360 4.8 14.5 0.00 0.00 0.00 80 1017.0
20260830085442 25 360 4.8 14.5 0.00 0.00 0.00 79 1017.0
20260830085322 25 360 3.2 14.5 0.00 0.00 0.00 79 1017.0
20260830085222 25 360 3.2 14.5 0.00 0.00 0.00 80 1017.1
20260830085123 25 360 3.2 14.5 0.00 0.00 0.00 80 1017.0
20260830085043 25 360 3.2 14.5 0.00 0.00 0.00 79 1017.0
20260830085003 25 360 4.8 14.5 0.00 0.00 0.00 79 1017.1
20260830084816 25 360 4.8 14.5 0.00 0.00 0.00 79 1017.1
20260830084720 25 360 4.8 14.5 0.00 0.00 0.00 79 1017.1
20260830084620 25 360 4.8 14.5 0.00 0.00 0.00 79 1017.1
20260830084521 25 360 4.8 12.9 0.00 0.00 0.00 79 1017.1
20260830084422 25 360 4.8 12.9 0.00 0.00 0.00 79 1017.1
20260830084322 25 360 3.2 12.9 0.00 0.00 0.00 79 1017.1
20260830084243 25 360 3.2 12.9 0.00 0.00 0.00 79 1017.1
20260830084122 25 360 4.8 12.9 0.00 0.00 0.00 79 1017.1
20260830084021 25 360 4.8 12.9 0.00 0.00 0.00 79 1017.1
20260830083945 25 360 4.8 12.9 0.00 0.00 0.00 79 1017.1
20260830083826 25 360 4.8 12.9 0.00 0.00 0.00 79 1017.1
20260830083727 25 360 4.8 12.9 0.00 0.00 0.00 79 1017.1
20260830083627 25 360 3.2 12.9 0.00 0.00 0.00 80 1017.0
20260830083527 25 360 4.8 12.9 0.00 0.00 0.00 80 1017.0
20260830083428 25 360 4.8 12.9 0.00 0.00 0.00 79 1017.0
20260830083328 25 360 4.8 12.9 0.00 0.00 0.00 79 1017.0
20260830083232 25 360 4.8 12.9 0.00 0.00 0.00 79 1017.1
20260830083133 25 360 4.8 12.9 0.00 0.00 0.00 79 1017.0
20260830083033 25 360 4.8 12.9 0.00 0.00 0.00 79 1017.0
20260830082933 25 360 3.2 16.1 0.00 0.00 0.00 79 1017.0
20260830082836 25 360 4.8 16.1 0.00 0.00 0.00 79 1017.0
20260830082735 25 360 4.8 16.1 0.00 0.00 0.00 79 1017.0
20260830082620 25 360 4.8 16.1 0.00 0.00 0.00 79 1017.0
20260830082521 25 360 3.2 16.1 0.00 0.00 0.00 79 1017.0
20260830082421 25 360 4.8 16.1 0.00 0.00 0.00 78 1017.0
20260830082322 25 360 6.4 24.1 0.00 0.00 0.00 78 1017.0
20260830082242 25 360 6.4 24.1 0.00 0.00 0.00 78 1017.0
20260830082142 25 360 4.8 24.1 0.00 0.00 0.00 78 1017.0
20260830082022 25 360 4.8 24.1 0.00 0.00 0.00 78 1017.0
20260830081927 25 360 6.4 24.1 0.00 0.00 0.00 78 1017.0
20260830081827 25 360 6.4 24.1 0.00 0.00 0.00 78 1017.0
20260830081728 25 360 8.0 24.1 0.00 0.00 0.00 78 1017.0
20260830081629 25 360 9.7 24.1 0.00 0.00 0.00 78 1017.0
20260830081529 25 360 9.7 24.1 0.00 0.00 0.00 78 1017.0
20260830081430 25 360 9.7 16.1 0.00 0.00 0.00 78 1017.0
20260830081329 25 360 6.4 14.5 0.00 0.00 0.00 78 1017.0
20260830081234 25 360 6.4 14.5 0.00 0.00 0.00 78 1017.0
20260830081134 25 360 8.0 17.7 0.00 0.00 0.00 78 1017.1
20260830081036 25 360 6.4 17.7 0.00 0.00 0.00 78 1017.0
20260830080935 26 360 8.0 17.7 0.00 0.00 0.00 78 1017.1
20260830080835 26 360 4.8 17.7 0.00 0.00 0.00 78 1017.1
20260830080756 26 360 4.8 17.7 0.00 0.00 0.00 78 1017.1
20260830080634 26 360 6.4 17.7 0.00 0.00 0.00 78 1017.1
20260830080519 26 360 8.0 22.5 0.00 0.00 0.00 78 1017.2
20260830080419 26 360 8.0 22.5 0.00 0.00 0.00 78 1017.1
20260830080319 26 360 4.8 22.5 0.00 0.00 0.00 78 1017.1
20260830080219 26 360 3.2 22.5 0.00 0.00 0.00 77 1017.1
20260830080141 26 360 3.2 22.5 0.00 0.00 0.00 77 1017.1
20260830080019 26 360 4.8 22.5 0.00 0.00 0.00 77 1017.0
20260830075940 26 360 8.0 22.5 0.00 0.00 0.00 77 1017.1
20260830075821 26 360 9.7 22.5 0.00 0.00 0.00 77 1017.2
20260830075718 26 360 11.3 22.5 0.00 0.00 0.00 77 1017.2
20260830075623 26 360 9.7 22.5 0.00 0.00 0.00 77 1017.2
20260830075545 26 360 9.7 22.5 0.00 0.00 0.00 77 1017.2
20260830075444 26 360 9.7 22.5 0.00 0.00 0.00 77 1017.2
20260830075323 26 360 11.3 22.5 0.00 0.00 0.00 77 1017.3
20260830075224 26 360 12.9 22.5 0.00 0.00 0.00 77 1017.2
20260830075125 26 360 16.1 22.5 0.00 0.00 0.00 77 1017.3
20260830075025 26 360 14.5 22.5 0.00 0.00 0.00 77 1017.3
20260830074946 26 360 11.3 22.5 0.00 0.00 0.00 77 1017.3
20260830074830 26 360 11.3 20.9 0.00 0.00 0.00 77 1017.3
20260830074729 26 360 11.3 20.9 0.00 0.00 0.00 77 1017.2
20260830074630 26 360 12.9 20.9 0.00 0.00 0.00 77 1017.2
20260830074530 26 360 9.7 19.3 0.00 0.00 0.00 77 1017.2
20260830074431 26 360 9.7 19.3 0.00 0.00 0.00 77 1017.3
20260830074333 26 360 8.0 19.3 0.00 0.00 0.00 77 1017.3
20260830074217 26 360 8.0 19.3 0.00 0.00 0.00 77 1017.3
20260830074138 26 360 8.0 17.7 0.00 0.00 0.00 77 1017.3
20260830074018 26 360 8.0 17.7 0.00 0.00 0.00 77 1017.3
20260830073918 26 360 8.0 17.7 0.00 0.00 0.00 77 1017.3
20260830073818 26 360 8.0 17.7 0.00 0.00 0.00 77 1017.3
20260830073718 26 360 8.0 17.7 0.00 0.00 0.00 77 1017.3
20260830073619 26 360 9.7 17.7 0.00 0.00 0.00 77 1017.4
20260830073520 26 360 11.3 20.9 0.00 0.00 0.00 77 1017.3
20260830073425 26 360 11.3 20.9 0.00 0.00 0.00 77 1017.3
20260830073326 26 360 9.7 20.9 0.00 0.00 0.00 77 1017.3
20260830073227 26 360 9.7 20.9 0.00 0.00 0.00 77 1017.3
20260830073128 26 171 11.3 20.9 0.00 0.00 0.00 77 1017.4
20260830073029 26 360 11.3 20.9 0.00 0.00 0.00 77 1017.3
20260830072929 26 360 11.3 20.9 0.00 0.00 0.00 77 1017.4
20260830072851 26 360 9.7 20.9 0.00 0.00 0.00 77 1017.3
20260830072734 26 360 9.7 20.9 0.00 0.00 0.00 77 1017.4
20260830072654 26 360 8.0 17.7 0.00 0.00 0.00 77 1017.4
20260830072534 26 360 9.7 17.7 0.00 0.00 0.00 77 1017.4
20260830072434 26 360 9.7 17.7 0.00 0.00 0.00 76 1017.3
20260830072334 26 360 11.3 17.7 0.00 0.00 0.00 76 1017.4
20260830072233 26 360 11.3 20.9 0.00 0.00 0.00 76 1017.4
20260830072134 26 360 11.3 20.9 0.00 0.00 0.00 76 1017.4
20260830072018 26 360 11.3 20.9 0.00 0.00 0.00 76 1017.4
20260830071920 26 360 11.3 20.9 0.00 0.00 0.00 76 1017.4
20260830071820 26 360 9.7 20.9 0.00 0.00 0.00 76 1017.4
20260830071741 26 360 9.7 20.9 0.00 0.00 0.00 76 1017.5
20260830071621 26 360 11.3 20.9 0.00 0.00 0.00 76 1017.4
20260830071542 26 360 12.9 20.9 0.00 0.00 0.00 76 1017.4
20260830071442 26 360 12.9 24.1 0.00 0.00 0.00 76 1017.4
20260830071316 26 360 8.0 24.1 0.00 0.00 0.00 76 1017.4
20260830071221 26 360 8.0 24.1 0.00 0.00 0.00 76 1017.4
20260830071121 26 360 8.0 24.1 0.00 0.00 0.00 75 1017.4
20260830071021 26 360 11.3 24.1 0.00 0.00 0.00 75 1017.4
20260830070941 26 360 9.7 24.1 0.00 0.00 0.00 75 1017.3
20260830070820 26 360 9.7 24.1 0.00 0.00 0.00 75 1017.3
20260830070721 26 360 8.0 24.1 0.00 0.00 0.00 75 1017.3
20260830070621 26 360 11.3 24.1 0.00 0.00 0.00 75 1017.3
20260830070525 26 360 9.7 22.5 0.00 0.00 0.00 75 1017.3
20260830070427 26 360 9.7 22.5 0.00 0.00 0.00 75 1017.4
20260830070327 26 360 8.0 22.5 0.00 0.00 0.00 75 1017.3
20260830070227 26 360 8.0 22.5 0.00 0.00 0.00 75 1017.4
20260830070127 26 360 9.7 29.0 0.00 0.00 0.00 75 1017.3
20260830070027 26 360 11.3 29.0 0.00 0.00 0.00 75 1017.4
20260830065948 26 360 8.0 29.0 0.00 0.00 0.00 75 1017.3
20260830065832 26 360 8.0 29.0 0.00 0.00 0.00 75 1017.3
20260830065730 26 360 9.7 29.0 0.00 0.00 0.00 75 1017.3
20260830065651 26 360 9.7 29.0 0.00 0.00 0.00 75 1017.4
20260830065530 26 360 11.3 29.0 0.00 0.00 0.00 75 1017.3
20260830065430 26 360 12.9 29.0 0.00 0.00 0.00 75 1017.3
20260830065330 27 360 11.3 22.5 0.00 0.00 0.00 75 1017.5
20260830065232 27 360 11.3 22.5 0.00 0.00 0.00 75 1017.4
20260830065133 27 360 9.7 20.9 0.00 0.00 0.00 75 1017.3
20260830065038 27 360 8.0 20.9 0.00 0.00 0.00 75 1017.4
20260830064917 27 360 8.0 20.9 0.00 0.00 0.00 75 1017.3
20260830064817 27 360 9.7 20.9 0.00 0.00 0.00 75 1017.3
20260830064716 27 360 11.3 20.9 0.00 0.00 0.00 75 1017.3
20260830064617 27 360 9.7 20.9 0.00 0.00 0.00 74 1017.3
20260830064517 27 360 8.0 20.9 0.00 0.00 0.00 74 1017.3
20260830064438 27 360 6.4 20.9 0.00 0.00 0.00 74 1017.3
20260830064318 27 360 8.0 22.5 0.00 0.00 0.00 74 1017.3
20260830064223 27 360 11.3 22.5 0.00 0.00 0.00 74 1017.2
20260830064124 27 360 12.9 25.7 0.00 0.00 0.00 74 1017.3
20260830064023 27 360 12.9 25.7 0.00 0.00 0.00 74 1017.2
20260830063944 27 360 9.7 25.7 0.00 0.00 0.00 74 1017.3
20260830063822 27 360 9.7 25.7 0.00 0.00 0.00 74 1017.2
20260830063722 27 360 11.3 25.7 0.00 0.00 0.00 74 1017.2
20260830063623 27 360 11.3 30.6 0.00 0.00 0.00 74 1017.2
20260830063524 27 360 11.3 30.6 0.00 0.00 0.00 74 1017.1
20260830063429 27 188 8.0 30.6 0.00 0.00 0.00 74 1017.2
20260830063329 27 360 9.7 30.6 0.00 0.00 0.00 74 1017.1
20260830063229 27 360 9.7 30.6 0.00 0.00 0.00 74 1017.1
20260830063130 27 360 11.3 30.6 0.00 0.00 0.00 74 1017.2
20260830063030 27 360 11.3 30.6 0.00 0.00 0.00 74 1017.1
20260830062930 27 360 11.3 30.6 0.00 0.00 0.00 74 1017.1
20260830062831 27 360 11.3 30.6 0.00 0.00 0.00 74 1017.2
20260830062734 27 360 9.7 19.3 0.00 0.00 0.00 74 1017.1
20260830062635 27 360 8.0 25.7 0.00 0.00 0.00 74 1017.2
20260830062556 27 360 8.0 25.7 0.00 0.00 0.00 74 1017.2
20260830062456 27 360 8.0 25.7 0.00 0.00 0.00 74 1017.2
20260830062335 27 360 11.3 25.7 0.00 0.00 0.00 74 1017.2
20260830062235 27 360 11.3 25.7 0.00 0.00 0.00 74 1017.3
20260830062116 27 360 11.3 25.7 0.00 0.00 0.00 74 1017.3
20260830062021 27 360 12.9 25.7 0.00 0.00 0.00 74 1017.2
20260830061921 27 360 12.9 25.7 0.00 0.00 0.00 74 1017.3
20260830061821 27 360 9.7 25.7 0.00 0.00 0.00 74 1017.3
20260830061722 27 175 8.0 20.9 0.00 0.00 0.00 74 1017.3
20260830061624 27 360 8.0 20.9 0.00 0.00 0.00 74 1017.2
20260830061524 27 360 11.3 20.9 0.00 0.00 0.00 74 1017.3
20260830061429 27 360 9.7 24.1 0.00 0.00 0.00 74 1017.2
20260830061329 27 360 8.0 24.1 0.00 0.00 0.00 74 1017.2
20260830061230 27 360 8.0 24.1 0.00 0.00 0.00 73 1017.3
20260830061131 27 360 8.0 24.1 0.00 0.00 0.00 73 1017.3
20260830061031 27 360 9.7 24.1 0.00 0.00 0.00 73 1017.3
20260830060932 27 360 11.3 24.1 0.00 0.00 0.00 73 1017.2
20260830060832 27 360 12.9 24.1 0.00 0.00 0.00 73 1017.2
20260830060717 27 360 11.3 24.1 0.00 0.00 0.00 73 1017.3
20260830060618 27 360 11.3 24.1 0.00 0.00 0.00 73 1017.3
20260830060538 27 360 12.9 24.1 0.00 0.00 0.00 73 1017.3
20260830060418 27 360 12.9 24.1 0.00 0.00 0.00 73 1017.2
20260830060319 27 360 11.3 24.1 0.00 0.00 0.00 73 1017.3
20260830060219 27 360 8.0 25.7 0.00 0.00 0.00 73 1017.3
20260830060120 27 360 8.0 25.7 0.00 0.00 0.00 73 1017.2
20260830060023 27 360 9.7 25.7 0.00 0.00 0.00 73 1017.3
20260830055924 27 360 9.7 25.7 0.00 0.00 0.00 73 1017.2
20260830055825 27 360 11.3 25.7 0.00 0.00 0.00 73 1017.2
20260830055726 27 360 9.7 25.7 0.00 0.00 0.00 72 1017.2
20260830055647 27 360 9.7 25.7 0.00 0.00 0.00 72 1017.2
20260830055525 27 360 9.7 25.7 0.00 0.00 0.00 72 1017.2
20260830055426 27 360 11.3 25.7 0.00 0.00 0.00 72 1017.2
20260830055325 27 360 12.9 24.1 0.00 0.00 0.00 72 1017.2
20260830055229 27 360 12.9 24.1 0.00 0.00 0.00 72 1017.1
20260830055130 27 360 14.5 24.1 0.00 0.00 0.00 72 1017.2
20260830055030 27 360 12.9 24.1 0.00 0.00 0.00 72 1017.2
20260830054931 27 360 9.7 20.9 0.00 0.00 0.00 72 1017.1
20260830054831 27 360 8.0 20.9 0.00 0.00 0.00 72 1017.2
20260830054731 27 360 11.3 22.5 0.00 0.00 0.00 72 1017.1
20260830054631 27 360 12.9 22.5 0.00 0.00 0.00 72 1017.1
20260830054516 27 360 11.3 22.5 0.00 0.00 0.00 72 1017.2
20260830054417 28 360 11.3 22.5 0.00 0.00 0.00 72 1017.1
20260830054317 28 360 11.3 22.5 0.00 0.00 0.00 72 1017.1
20260830054218 28 360 9.7 22.5 0.00 0.00 0.00 71 1017.1
20260830054118 28 360 8.0 22.5 0.00 0.00 0.00 71 1017.1
20260830054019 28 360 8.0 22.5 0.00 0.00 0.00 71 1017.2
20260830053923 28 360 9.7 30.6 0.00 0.00 0.00 71 1017.2
20260830053823 28 360 9.7 30.6 0.00 0.00 0.00 71 1017.2
20260830053722 28 360 9.7 30.6 0.00 0.00 0.00 71 1017.2
20260830053623 28 360 11.3 30.6 0.00 0.00 0.00 71 1017.2
20260830053522 28 360 12.9 30.6 0.00 0.00 0.00 71 1017.2
20260830053423 28 360 12.9 30.6 0.00 0.00 0.00 71 1017.2
20260830053324 28 360 12.9 30.6 0.00 0.00 0.00 71 1017.2
20260830053228 28 360 12.9 30.6 0.00 0.00 0.00 71 1017.2
20260830053149 28 360 14.5 30.6 0.00 0.00 0.00 71 1017.2
20260830053028 28 360 12.9 30.6 0.00 0.00 0.00 71 1017.2
20260830052928 28 360 12.9 30.6 0.00 0.00 0.00 71 1017.2
20260830052830 28 360 12.9 24.1 0.00 0.00 0.00 71 1017.2
20260830052730 28 360 14.5 24.1 0.00 0.00 0.00 71 1017.2
20260830052629 28 360 12.9 20.9 0.00 0.00 0.00 71 1017.3
20260830052551 28 360 9.7 20.9 0.00 0.00 0.00 71 1017.3
20260830052433 28 360 9.7 20.9 0.00 0.00 0.00 70 1017.2
20260830052334 28 360 9.7 20.9 0.00 0.00 0.00 70 1017.2
20260830052235 28 360 9.7 20.9 0.00 0.00 0.00 70 1017.1
20260830052135 28 360 11.3 20.9 0.00 0.00 0.00 70 1017.2
20260830052055 28 360 11.3 20.9 0.00 0.00 0.00 70 1017.2
20260830051935 28 169 11.3 20.9 0.00 0.00 0.00 70 1017.2
20260830051816 28 360 9.7 20.9 0.00 0.00 0.00 70 1017.2
20260830051741 28 360 8.0 19.3 0.00 0.00 0.00 70 1017.2
20260830051621 28 360 8.0 19.3 0.00 0.00 0.00 70 1017.2
20260830051521 28 360 6.4 19.3 0.00 0.00 0.00 70 1017.3
20260830051422 28 360 6.4 19.3 0.00 0.00 0.00 70 1017.3
20260830051322 28 360 8.0 19.3 0.00 0.00 0.00 70 1017.3
20260830051243 28 360 8.0 24.1 0.00 0.00 0.00 70 1017.2
20260830051123 28 360 8.0 24.1 0.00 0.00 0.00 70 1017.3
20260830051044 28 360 8.0 24.1 0.00 0.00 0.00 70 1017.2
20260830050928 28 360 9.7 24.1 0.00 0.00 0.00 70 1017.3
20260830050829 28 360 9.7 24.1 0.00 0.00 0.00 70 1017.3
20260830050730 28 360 9.7 24.1 0.00 0.00 0.00 70 1017.3
20260830050629 28 360 11.3 24.1 0.00 0.00 0.00 70 1017.2
20260830050529 28 360 14.5 24.1 0.00 0.00 0.00 70 1017.3
20260830050428 28 360 14.5 24.1 0.00 0.00 0.00 70 1017.3
20260830050329 28 360 12.9 22.5 0.00 0.00 0.00 70 1017.2
20260830050233 28 360 11.3 22.5 0.00 0.00 0.00 70 1017.2
20260830050134 28 360 11.3 20.9 0.00 0.00 0.00 70 1017.2
20260830050033 28 360 9.7 20.9 0.00 0.00 0.00 69 1017.2
20260830045948 28 360 9.7 24.1 0.00 0.00 0.00 69 1017.2
20260830045828 28 360 8.0 24.1 0.00 0.00 0.00 69 1017.2
20260830045748 28 360 9.7 24.1 0.00 0.00 0.00 69 1017.2
20260830045626 28 360 9.7 24.1 0.00 0.00 0.00 69 1017.3
20260830045527 28 360 9.7 24.1 0.00 0.00 0.00 69 1017.3
20260830045432 28 360 8.0 24.1 0.00 0.00 0.00 69 1017.3
20260830045333 28 360 11.3 24.1 0.00 0.00 0.00 69 1017.3
20260830045234 28 360 11.3 24.1 0.00 0.00 0.00 69 1017.3
20260830045134 28 360 14.5 24.1 0.00 0.00 0.00 69 1017.3
20260830045034 28 360 12.9 24.1 0.00 0.00 0.00 69 1017.2
20260830044935 28 360 12.9 24.1 0.00 0.00 0.00 69 1017.2
20260830044819 28 360 12.9 22.5 0.00 0.00 0.00 69 1017.2
20260830044720 28 360 12.9 24.1 0.00 0.00 0.00 69 1017.2
20260830044640 28 360 11.3 24.1 0.00 0.00 0.00 69 1017.2
20260830044519 28 360 12.9 24.1 0.00 0.00 0.00 69 1017.2
20260830044419 28 360 11.3 24.1 0.00 0.00 0.00 69 1017.2
20260830044320 28 360 11.3 24.1 0.00 0.00 0.00 68 1017.2
20260830044240 29 360 12.9 24.1 0.00 0.00 0.00 68 1017.2
20260830044119 29 360 14.5 24.1 0.00 0.00 0.00 68 1017.3
20260830044044 29 360 16.1 24.1 0.00 0.00 0.00 68 1017.2
20260830043924 29 360 14.5 24.1 0.00 0.00 0.00 68 1017.3
20260830043825 29 360 11.3 20.9 0.00 0.00 0.00 68 1017.2
20260830043725 29 360 11.3 20.9 0.00 0.00 0.00 68 1017.3
20260830043626 29 360 11.3 20.9 0.00 0.00 0.00 68 1017.3
20260830043526 29 360 12.9 20.9 0.00 0.00 0.00 68 1017.2
20260830043447 29 360 11.3 20.9 0.00 0.00 0.00 68 1017.2
20260830043330 29 360 12.9 22.5 0.00 0.00 0.00 68 1017.2
20260830043230 29 360 9.7 22.5 0.00 0.00 0.00 68 1017.2
20260830043130 29 360 9.7 22.5 0.00 0.00 0.00 68 1017.2
20260830043051 29 360 9.7 20.9 0.00 0.00 0.00 68 1017.3
20260830042931 29 360 9.7 20.9 0.00 0.00 0.00 68 1017.2
20260830042853 29 360 9.7 20.9 0.00 0.00 0.00 67 1017.2
20260830042731 29 360 9.7 20.9 0.00 0.00 0.00 67 1017.3
20260830042651 29 360 8.0 20.9 0.00 0.00 0.00 67 1017.2
20260830042535 29 360 8.0 20.9 0.00 0.00 0.00 67 1017.3
20260830042435 29 360 8.0 20.9 0.00 0.00 0.00 67 1017.3
20260830042316 29 360 9.7 20.9 0.00 0.00 0.00 67 1017.3
20260830042216 29 360 11.3 19.3 0.00 0.00 0.00 67 1017.3
20260830042117 29 360 9.7 19.3 0.00 0.00 0.00 67 1017.3
20260830042017 29 360 8.0 19.3 0.00 0.00 0.00 67 1017.3
20260830041917 29 360 8.0 27.4 0.00 0.00 0.00 67 1017.2
20260830041822 29 360 11.3 27.4 0.00 0.00 0.00 67 1017.3
20260830041723 29 360 9.7 27.4 0.00 0.00 0.00 67 1017.3
20260830041623 29 360 8.0 27.4 0.00 0.00 0.00 66 1017.2
20260830041524 30 360 4.8 29.0 0.00 0.00 0.00 66 1017.3
20260830041425 30 360 6.4 29.0 0.00 0.00 0.00 66 1017.2
20260830041345 30 360 9.7 29.0 0.00 0.00 0.00 66 1017.3
20260830041225 30 360 12.9 29.0 0.00 0.00 0.00 66 1017.3
20260830041130 30 360 11.3 29.0 0.00 0.00 0.00 66 1017.3
20260830041030 30 360 12.9 29.0 0.00 0.00 0.00 66 1017.3
20260830040931 30 360 14.5 29.0 0.00 0.00 0.00 66 1017.3
20260830040832 30 360 17.7 29.0 0.00 0.00 0.00 66 1017.4
20260830040733 30 360 14.5 29.0 0.00 0.00 0.00 66 1017.3
20260830040633 30 360 11.3 25.7 0.00 0.00 0.00 66 1017.3
20260830040553 30 360 11.3 25.7 0.00 0.00 0.00 66 1017.3
20260830040436 30 360 11.3 25.7 0.00 0.00 0.00 65 1017.3
20260830040356 30 360 14.5 25.7 0.00 0.00 0.00 65 1017.3
20260830040235 30 360 14.5 25.7 0.00 0.00 0.00 65 1017.3
20260830040135 30 360 17.7 29.0 0.00 0.00 0.00 65 1017.2
20260830040036 30 360 14.5 29.0 0.00 0.00 0.00 65 1017.2
20260830035956 30 360 11.3 32.2 0.00 0.00 0.00 65 1017.3
20260830035838 30 360 9.7 32.2 0.00 0.00 0.00 65 1017.2
20260830035756 30 360 12.9 32.2 0.00 0.00 0.00 65 1017.2
20260830035621 30 360 12.9 32.2 0.00 0.00 0.00 65 1017.2
20260830035521 30 360 16.1 32.2 0.00 0.00 0.00 65 1017.1
20260830035420 30 360 19.3 32.2 0.00 0.00 0.00 65 1017.2
20260830035321 30 360 20.9 32.2 0.00 0.00 0.00 65 1017.1
20260830035221 30 360 19.3 32.2 0.00 0.00 0.00 65 1017.1
20260830035122 30 360 16.1 35.4 0.00 0.00 0.00 65 1017.1
20260830035023 30 360 17.7 35.4 0.00 0.00 0.00 65 1017.1
20260830034927 30 360 19.3 35.4 0.00 0.00 0.00 65 1017.1
20260830034827 30 360 19.3 35.4 0.00 0.00 0.00 65 1017.2
20260830034726 30 360 16.1 35.4 0.00 0.00 0.00 65 1017.1
20260830034627 30 360 14.5 35.4 0.00 0.00 0.00 65 1017.2
20260830034528 30 360 16.1 35.4 0.00 0.00 0.00 65 1017.2
20260830034430 30 360 17.7 35.4 0.00 0.00 0.00 64 1017.2
20260830034352 30 360 16.1 32.2 0.00 0.00 0.00 64 1017.2
20260830034235 30 360 16.1 30.6 0.00 0.00 0.00 64 1017.2